Wetterdaten: Freitag, 07.02.2014
Datum Zeit Temp. Aussen +5cm Feuchte Auss Luftdruck Regen Sonnenschein Regendauer UV Solar Windben
07.02.2014 00:00 8,7 C 5,0 C 78 % 991,6 hPa 0,0 l/m 0 min 0 min 0,0 UV-I 0 W/m 23,2 km/h (4 Bft)
07.02.2014 00:02 8,7 C 5,0 C 77 % 991,5 hPa 0,0 l/m 0 min 0 min 0,0 UV-I 0 W/m 25,7 km/h (4 Bft)
07.02.2014 00:04 8,7 C 5,0 C 77 % 991,6 hPa 0,0 l/m 0 min 0 min 0,0 UV-I 0 W/m 20,6 km/h (4 Bft)
07.02.2014 00:06 8,7 C 5,0 C 77 % 991,5 hPa 0,0 l/m 0 min 0 min 0,0 UV-I 0 W/m 25,7 km/h (4 Bft)
07.02.2014 00:08 8,7 C 5,0 C 77 % 991,5 hPa 0,0 l/m 0 min 0 min 0,0 UV-I 0 W/m 28,3 km/h (4 Bft)
07.02.2014 00:10 8,8 C 5,6 C 77 % 991,4 hPa 0,0 l/m 0 min 0 min 0,0 UV-I 0 W/m 25,7 km/h (4 Bft)
07.02.2014 00:12 8,8 C 5,6 C 77 % 991,4 hPa 0,0 l/m 0 min 0 min 0,0 UV-I 0 W/m 25,7 km/h (4 Bft)
07.02.2014 00:14 8,9 C 5,6 C 77 % 991,3 hPa 0,0 l/m 0 min 0 min 0,0 UV-I 0 W/m 28,3 km/h (4 Bft)
07.02.2014 00:16 8,9 C 5,6 C 77 % 991,3 hPa 0,0 l/m 0 min 0 min 0,0 UV-I 0 W/m 23,2 km/h (4 Bft)
07.02.2014 00:18 8,9 C 5,6 C 77 % 991,2 hPa 0,0 l/m 0 min 0 min 0,0 UV-I 0 W/m 20,6 km/h (4 Bft)
07.02.2014 00:20 8,9 C 5,6 C 77 % 991,3 hPa 0,0 l/m 0 min 0 min 0,0 UV-I 0 W/m 18,0 km/h (3 Bft)
07.02.2014 00:22 8,8 C 5,6 C 77 % 991,2 hPa 0,0 l/m 0 min 0 min 0,0 UV-I 0 W/m 12,9 km/h (3 Bft)
07.02.2014 00:24 8,8 C 5,6 C 78 % 991,2 hPa 0,0 l/m 0 min 0 min 0,0 UV-I 0 W/m 20,6 km/h (4 Bft)
07.02.2014 00:26 8,7 C 5,6 C 78 % 991,2 hPa 0,0 l/m 0 min 0 min 0,0 UV-I 0 W/m 15,4 km/h (3 Bft)
07.02.2014 00:28 8,7 C 5,6 C 78 % 991,1 hPa 0,0 l/m 0 min 0 min 0,0 UV-I 0 W/m 25,7 km/h (4 Bft)
07.02.2014 00:30 8,6 C 5,6 C 78 % 991,1 hPa 0,0 l/m 0 min 0 min 0,0 UV-I 0 W/m 15,4 km/h (3 Bft)
07.02.2014 00:32 8,6 C 5,0 C 78 % 991,0 hPa 0,0 l/m 0 min 0 min 0,0 UV-I 0 W/m 20,6 km/h (4 Bft)
07.02.2014 00:34 8,6 C 5,0 C 78 % 991,0 hPa 0,0 l/m 0 min 0 min 0,0 UV-I 0 W/m 20,6 km/h (4 Bft)
07.02.2014 00:36 8,5 C 5,6 C 79 % 990,9 hPa 0,0 l/m 0 min 0 min 0,0 UV-I 0 W/m 23,2 km/h (4 Bft)
07.02.2014 00:38 8,4 C 5,6 C 79 % 990,9 hPa 0,0 l/m 0 min 0 min 0,0 UV-I 0 W/m 20,6 km/h (4 Bft)
07.02.2014 00:40 8,4 C 5,6 C 79 % 990,9 hPa 0,0 l/m 0 min 0 min 0,0 UV-I 0 W/m 23,2 km/h (4 Bft)
07.02.2014 00:42 8,5 C 5,6 C 79 % 990,8 hPa 0,0 l/m 0 min 0 min 0,0 UV-I 0 W/m 20,6 km/h (4 Bft)
07.02.2014 00:44 8,5 C 5,6 C 79 % 990,8 hPa 0,0 l/m 0 min 0 min 0,0 UV-I 0 W/m 15,4 km/h (3 Bft)
07.02.2014 00:46 8,5 C 5,6 C 79 % 990,7 hPa 0,0 l/m 0 min 0 min 0,0 UV-I 0 W/m 23,2 km/h (4 Bft)
07.02.2014 00:48 8,5 C 5,6 C 79 % 990,7 hPa 0,0 l/m 0 min 0 min 0,0 UV-I 0 W/m 18,0 km/h (3 Bft)
07.02.2014 00:50 8,6 C 5,6 C 79 % 990,7 hPa 0,0 l/m 0 min 0 min 0,0 UV-I 0 W/m 18,0 km/h (3 Bft)
07.02.2014 00:52 8,6 C 5,6 C 79 % 990,7 hPa 0,0 l/m 0 min 0 min 0,0 UV-I 0 W/m 20,6 km/h (4 Bft)
07.02.2014 00:54 8,6 C 5,6 C 79 % 990,7 hPa 0,0 l/m 0 min 0 min 0,0 UV-I 0 W/m 18,0 km/h (3 Bft)
07.02.2014 00:56 8,6 C 5,6 C 79 % 990,6 hPa 0,0 l/m 0 min 0 min 0,0 UV-I 0 W/m 20,6 km/h (4 Bft)
07.02.2014 00:58 8,6 C 5,6 C 79 % 990,6 hPa 0,0 l/m 0 min 0 min 0,0 UV-I 0 W/m 20,6 km/h (4 Bft)
07.02.2014 01:00 8,6 C 5,6 C 79 % 990,5 hPa 0,0 l/m 0 min 0 min 0,0 UV-I 0 W/m 20,6 km/h (4 Bft)
07.02.2014 01:02 8,6 C 5,6 C 79 % 990,5 hPa 0,0 l/m 0 min 0 min 0,0 UV-I 0 W/m 18,0 km/h (3 Bft)
07.02.2014 01:04 8,6 C 5,6 C 79 % 990,5 hPa 0,0 l/m 0 min 0 min 0,0 UV-I 0 W/m 23,2 km/h (4 Bft)
07.02.2014 01:06 8,7 C 5,6 C 78 % 990,5 hPa 0,0 l/m 0 min 0 min 0,0 UV-I 0 W/m 28,3 km/h (4 Bft)
07.02.2014 01:08 8,7 C 5,6 C 79 % 990,5 hPa 0,0 l/m 0 min 0 min 0,0 UV-I 0 W/m 25,7 km/h (4 Bft)
07.02.2014 01:10 8,7 C 6,1 C 79 % 990,3 hPa 0,0 l/m 0 min 0 min 0,0 UV-I 0 W/m 20,6 km/h (4 Bft)
07.02.2014 01:12 8,7 C 6,1 C 79 % 990,5 hPa 0,0 l/m 0 min 2 min 0,0 UV-I 0 W/m 23,2 km/h (4 Bft)
07.02.2014 01:14 8,7 C 6,1 C 79 % 990,5 hPa 0,0 l/m 0 min 2 min 0,0 UV-I 0 W/m 18,0 km/h (3 Bft)
07.02.2014 01:16 8,7 C 6,1 C 79 % 990,5 hPa 0,0 l/m 0 min 0 min 0,0 UV-I 0 W/m 18,0 km/h (3 Bft)
07.02.2014 01:18 8,7 C 6,1 C 79 % 990,5 hPa 0,0 l/m 0 min 0 min 0,0 UV-I 0 W/m 20,6 km/h (4 Bft)
07.02.2014 01:20 8,7 C 6,1 C 79 % 990,7 hPa 0,0 l/m 0 min 0 min 0,0 UV-I 0 W/m 20,6 km/h (4 Bft)
07.02.2014 01:22 8,7 C 6,7 C 79 % 990,6 hPa 0,0 l/m 0 min 0 min 0,0 UV-I 0 W/m 18,0 km/h (3 Bft)
07.02.2014 01:24 8,7 C 6,7 C 79 % 990,5 hPa 0,0 l/m 0 min 0 min 0,0 UV-I 0 W/m 23,2 km/h (4 Bft)
07.02.2014 01:26 8,7 C 6,7 C 79 % 990,6 hPa 0,0 l/m 0 min 0 min 0,0 UV-I 0 W/m 18,0 km/h (3 Bft)
07.02.2014 01:28 8,7 C 6,7 C 79 % 990,6 hPa 0,0 l/m 0 min 0 min 0,0 UV-I 0 W/m 15,4 km/h (3 Bft)
07.02.2014 01:30 8,7 C 6,7 C 79 % 990,5 hPa 0,0 l/m 0 min 0 min 0,0 UV-I 0 W/m 15,4 km/h (3 Bft)
07.02.2014 01:32 8,7 C 6,7 C 79 % 990,4 hPa 0,0 l/m 0 min 0 min 0,0 UV-I 0 W/m 18,0 km/h (3 Bft)
07.02.2014 01:34 8,8 C 6,7 C 79 % 990,3 hPa 0,0 l/m 0 min 0 min 0,0 UV-I 0 W/m 20,6 km/h (4 Bft)
07.02.2014 01:36 8,8 C 6,7 C 79 % 990,5 hPa 0,0 l/m 0 min 0 min 0,0 UV-I 0 W/m 20,6 km/h (4 Bft)
07.02.2014 01:38 8,8 C 6,7 C 78 % 990,4 hPa 0,0 l/m 0 min 0 min 0,0 UV-I 0 W/m 28,3 km/h (4 Bft)
07.02.2014 01:40 8,9 C 7,2 C 78 % 990,3 hPa 0,0 l/m 0 min 0 min 0,0 UV-I 0 W/m 30,9 km/h (5 Bft)
07.02.2014 01:42 9,1 C 7,2 C 77 % 990,3 hPa 0,0 l/m 0 min 0 min 0,0 UV-I 0 W/m 20,6 km/h (4 Bft)
07.02.2014 01:44 9,2 C 7,2 C 76 % 990,1 hPa 0,0 l/m 0 min 0 min 0,0 UV-I 0 W/m 30,9 km/h (5 Bft)
07.02.2014 01:46 9,3 C 7,2 C 76 % 990,1 hPa 0,0 l/m 0 min 0 min 0,0 UV-I 0 W/m 18,0 km/h (3 Bft)
07.02.2014 01:48 9,4 C 7,2 C 75 % 990,1 hPa 0,0 l/m 0 min 0 min 0,0 UV-I 0 W/m 38,6 km/h (5 Bft)
07.02.2014 01:50 9,5 C 7,2 C 75 % 990,0 hPa 0,0 l/m 0 min 0 min 0,0 UV-I 0 W/m 28,3 km/h (4 Bft)
07.02.2014 01:52 9,6 C 7,2 C 75 % 989,9 hPa 0,0 l/m 0 min 0 min 0,0 UV-I 0 W/m 28,3 km/h (4 Bft)
07.02.2014 01:54 9,6 C 7,2 C 74 % 989,9 hPa 0,0 l/m 0 min 0 min 0,0 UV-I 0 W/m 33,5 km/h (5 Bft)
07.02.2014 01:56 9,7 C 7,8 C 74 % 989,9 hPa 0,0 l/m 0 min 0 min 0,0 UV-I 0 W/m 30,9 km/h (5 Bft)
07.02.2014 01:58 9,7 C 7,2 C 74 % 989,8 hPa 0,0 l/m 0 min 0 min 0,0 UV-I 0 W/m 28,3 km/h (4 Bft)
07.02.2014 02:00 9,7 C 7,2 C 74 % 989,7 hPa 0,0 l/m 0 min 0 min 0,0 UV-I 0 W/m 25,7 km/h (4 Bft)
07.02.2014 02:02 9,7 C 7,2 C 74 % 989,7 hPa 0,0 l/m 0 min 0 min 0,0 UV-I 0 W/m 30,9 km/h (5 Bft)
07.02.2014 02:04 9,7 C 7,2 C 74 % 989,6 hPa 0,0 l/m 0 min 0 min 0,0 UV-I 0 W/m 23,2 km/h (4 Bft)
07.02.2014 02:06 9,7 C 7,2 C 74 % 989,6 hPa 0,0 l/m 0 min 0 min 0,0 UV-I 0 W/m 15,4 km/h (3 Bft)
07.02.2014 02:08 9,7 C 7,8 C 74 % 989,6 hPa 0,0 l/m 0 min 0 min 0,0 UV-I 0 W/m 25,7 km/h (4 Bft)
07.02.2014 02:10 9,7 C 7,8 C 74 % 989,6 hPa 0,0 l/m 0 min 0 min 0,0 UV-I 0 W/m 20,6 km/h (4 Bft)
07.02.2014 02:12 9,7 C 7,8 C 74 % 989,6 hPa 0,0 l/m 0 min 0 min 0,0 UV-I 0 W/m 30,9 km/h (5 Bft)
07.02.2014 02:14 9,7 C 7,8 C 74 % 989,7 hPa 0,0 l/m 0 min 2 min 0,0 UV-I 0 W/m 30,9 km/h (5 Bft)
07.02.2014 02:16 9,7 C 7,8 C 74 % 989,8 hPa 0,0 l/m 0 min 2 min 0,0 UV-I 0 W/m 23,2 km/h (4 Bft)
07.02.2014 02:18 9,7 C 7,2 C 75 % 989,7 hPa 0,0 l/m 0 min 2 min 0,0 UV-I 0 W/m 18,0 km/h (3 Bft)
07.02.2014 02:20 9,7 C 6,7 C 75 % 989,8 hPa 0,0 l/m 0 min 2 min 0,0 UV-I 0 W/m 23,2 km/h (4 Bft)
07.02.2014 02:22 9,7 C 6,7 C 76 % 989,6 hPa 0,0 l/m 0 min 2 min 0,0 UV-I 0 W/m 25,7 km/h (4 Bft)
07.02.2014 02:24 9,6 C 6,7 C 76 % 989,6 hPa 0,0 l/m 0 min 2 min 0,0 UV-I 0 W/m 30,9 km/h (5 Bft)
07.02.2014 02:26 9,5 C 6,1 C 77 % 989,5 hPa 0,0 l/m 0 min 2 min 0,0 UV-I 0 W/m 25,7 km/h (4 Bft)
07.02.2014 02:28 9,4 C 6,1 C 77 % 989,5 hPa 0,0 l/m 0 min 2 min 0,0 UV-I 0 W/m 23,2 km/h (4 Bft)
07.02.2014 02:30 9,4 C 6,1 C 77 % 989,4 hPa 0,0 l/m 0 min 2 min 0,0 UV-I 0 W/m 18,0 km/h (3 Bft)
07.02.2014 02:32 9,4 C 6,1 C 78 % 989,5 hPa 0,2 l/m 0 min 2 min 0,0 UV-I 0 W/m 23,2 km/h (4 Bft)
07.02.2014 02:34 9,3 C 6,1 C 78 % 989,5 hPa 0,0 l/m 0 min 2 min 0,0 UV-I 0 W/m 28,3 km/h (4 Bft)
07.02.2014 02:36 9,3 C 6,1 C 78 % 989,5 hPa 0,0 l/m 0 min 2 min 0,0 UV-I 0 W/m 28,3 km/h (4 Bft)
07.02.2014 02:38 9,3 C 6,1 C 79 % 989,5 hPa 0,0 l/m 0 min 2 min 0,0 UV-I 0 W/m 18,0 km/h (3 Bft)
07.02.2014 02:40 9,2 C 6,1 C 79 % 989,4 hPa 0,0 l/m 0 min 0 min 0,0 UV-I 0 W/m 33,5 km/h (5 Bft)
07.02.2014 02:42 9,2 C 6,1 C 79 % 989,5 hPa 0,0 l/m 0 min 2 min 0,0 UV-I 0 W/m 25,7 km/h (4 Bft)
07.02.2014 02:44 9,2 C 6,1 C 79 % 989,4 hPa 0,0 l/m 0 min 2 min 0,0 UV-I 0 W/m 23,2 km/h (4 Bft)
07.02.2014 02:46 9,2 C 6,1 C 79 % 989,5 hPa 0,0 l/m 0 min 2 min 0,0 UV-I 0 W/m 30,9 km/h (5 Bft)
07.02.2014 02:48 9,2 C 6,1 C 79 % 989,5 hPa 0,0 l/m 0 min 2 min 0,0 UV-I 0 W/m 23,2 km/h (4 Bft)
07.02.2014 02:50 9,2 C 6,1 C 79 % 989,3 hPa 0,0 l/m 0 min 2 min 0,0 UV-I 0 W/m 28,3 km/h (4 Bft)
07.02.2014 02:52 9,2 C 6,1 C 79 % 989,4 hPa 0,0 l/m 0 min 2 min 0,0 UV-I 0 W/m 30,9 km/h (5 Bft)
07.02.2014 02:54 9,3 C 6,7 C 79 % 989,3 hPa 0,0 l/m 0 min 2 min 0,0 UV-I 0 W/m 23,2 km/h (4 Bft)
07.02.2014 02:56 9,3 C 6,7 C 79 % 989,3 hPa 0,0 l/m 0 min 2 min 0,0 UV-I 0 W/m 28,3 km/h (4 Bft)
07.02.2014 02:58 9,3 C 6,7 C 79 % 989,3 hPa 0,0 l/m 0 min 2 min 0,0 UV-I 0 W/m 20,6 km/h (4 Bft)
07.02.2014 03:00 9,3 C 6,7 C 79 % 989,3 hPa 0,0 l/m 0 min 2 min 0,0 UV-I 0 W/m 20,6 km/h (4 Bft)
07.02.2014 03:02 9,3 C 6,7 C 78 % 989,3 hPa 0,0 l/m 0 min 0 min 0,0 UV-I 0 W/m 23,2 km/h (4 Bft)
07.02.2014 03:04 9,3 C 6,7 C 78 % 989,3 hPa 0,0 l/m 0 min 2 min 0,0 UV-I 0 W/m 25,7 km/h (4 Bft)
07.02.2014 03:06 9,4 C 6,7 C 78 % 989,1 hPa 0,0 l/m 0 min 2 min 0,0 UV-I 0 W/m 20,6 km/h (4 Bft)
07.02.2014 03:08 9,4 C 6,7 C 78 % 989,2 hPa 0,0 l/m 0 min 0 min 0,0 UV-I 0 W/m 38,6 km/h (5 Bft)
07.02.2014 03:10 9,5 C 6,7 C 78 % 989,2 hPa 0,0 l/m 0 min 2 min 0,0 UV-I 0 W/m 28,3 km/h (4 Bft)
07.02.2014 03:12 9,5 C 6,7 C 77 % 989,1 hPa 0,0 l/m 0 min 2 min 0,0 UV-I 0 W/m 23,2 km/h (4 Bft)
07.02.2014 03:14 9,6 C 6,7 C 78 % 989,2 hPa 0,0 l/m 0 min 2 min 0,0 UV-I 0 W/m 23,2 km/h (4 Bft)
07.02.2014 03:16 9,6 C 6,7 C 78 % 989,2 hPa 0,0 l/m 0 min 2 min 0,0 UV-I 0 W/m 25,7 km/h (4 Bft)
07.02.2014 03:18 9,5 C 6,1 C 79 % 989,1 hPa 0,0 l/m 0 min 2 min 0,0 UV-I 0 W/m 25,7 km/h (4 Bft)
07.02.2014 03:20 9,4 C 6,1 C 80 % 989,0 hPa 0,0 l/m 0 min 2 min 0,0 UV-I 0 W/m 23,2 km/h (4 Bft)
07.02.2014 03:22 9,4 C 6,1 C 80 % 989,0 hPa 0,0 l/m 0 min 2 min 0,0 UV-I 0 W/m 15,4 km/h (3 Bft)
07.02.2014 03:24 9,3 C 6,1 C 81 % 989,0 hPa 0,0 l/m 0 min 0 min 0,0 UV-I 0 W/m 25,7 km/h (4 Bft)
07.02.2014 03:26 9,3 C 6,1 C 80 % 989,1 hPa 0,0 l/m 0 min 2 min 0,0 UV-I 0 W/m 20,6 km/h (4 Bft)
07.02.2014 03:28 9,3 C 6,1 C 80 % 989,1 hPa 0,0 l/m 0 min 0 min 0,0 UV-I 0 W/m 25,7 km/h (4 Bft)
07.02.2014 03:30 9,3 C 6,1 C 80 % 989,0 hPa 0,0 l/m 0 min 0 min 0,0 UV-I 0 W/m 25,7 km/h (4 Bft)
07.02.2014 03:32 9,3 C 6,1 C 80 % 989,0 hPa 0,0 l/m 0 min 2 min 0,0 UV-I 0 W/m 23,2 km/h (4 Bft)
07.02.2014 03:34 9,4 C 6,1 C 80 % 989,1 hPa 0,0 l/m 0 min 2 min 0,0 UV-I 0 W/m 18,0 km/h (3 Bft)
07.02.2014 03:36 9,3 C 6,1 C 81 % 989,0 hPa 0,2 l/m 0 min 2 min 0,0 UV-I 0 W/m 20,6 km/h (4 Bft)
07.02.2014 03:38 9,3 C 6,1 C 81 % 989,0 hPa 0,0 l/m 0 min 2 min 0,0 UV-I 0 W/m 20,6 km/h (4 Bft)
07.02.2014 03:40 9,3 C 6,1 C 81 % 989,0 hPa 0,0 l/m 0 min 2 min 0,0 UV-I 0 W/m 20,6 km/h (4 Bft)
07.02.2014 03:42 9,3 C 6,1 C 81 % 989,1 hPa 0,0 l/m 0 min 2 min 0,0 UV-I 0 W/m 23,2 km/h (4 Bft)
07.02.2014 03:44 9,2 C 6,1 C 81 % 989,1 hPa 0,0 l/m 0 min 2 min 0,0 UV-I 0 W/m 20,6 km/h (4 Bft)
07.02.2014 03:46 9,2 C 6,1 C 81 % 989,0 hPa 0,0 l/m 0 min 2 min 0,0 UV-I 0 W/m 18,0 km/h (3 Bft)
07.02.2014 03:48 9,2 C 6,1 C 81 % 989,0 hPa 0,0 l/m 0 min 2 min 0,0 UV-I 0 W/m 25,7 km/h (4 Bft)
07.02.2014 03:50 9,2 C 6,1 C 81 % 989,1 hPa 0,0 l/m 0 min 2 min 0,0 UV-I 0 W/m 25,7 km/h (4 Bft)
07.02.2014 03:52 9,2 C 6,1 C 82 % 989,0 hPa 0,0 l/m 0 min 2 min 0,0 UV-I 0 W/m 12,9 km/h (3 Bft)
07.02.2014 03:54 9,2 C 6,1 C 82 % 989,0 hPa 0,0 l/m 0 min 2 min 0,0 UV-I 0 W/m 15,4 km/h (3 Bft)
07.02.2014 03:56 9,1 C 6,1 C 83 % 988,9 hPa 0,0 l/m 0 min 2 min 0,0 UV-I 0 W/m 12,9 km/h (3 Bft)
07.02.2014 03:58 9,1 C 6,1 C 83 % 989,0 hPa 0,2 l/m 0 min 2 min 0,0 UV-I 0 W/m 10,3 km/h (2 Bft)
07.02.2014 04:00 9,1 C 6,1 C 84 % 988,8 hPa 0,0 l/m 0 min 2 min 0,0 UV-I 0 W/m 23,2 km/h (4 Bft)
07.02.2014 04:02 9,1 C 6,1 C 84 % 989,0 hPa 0,0 l/m 0 min 2 min 0,0 UV-I 0 W/m 12,9 km/h (3 Bft)
07.02.2014 04:04 9,0 C 6,1 C 84 % 988,9 hPa 0,0 l/m 0 min 2 min 0,0 UV-I 0 W/m 18,0 km/h (3 Bft)
07.02.2014 04:06 9,0 C 6,1 C 85 % 989,0 hPa 0,0 l/m 0 min 2 min 0,0 UV-I 0 W/m 15,4 km/h (3 Bft)
07.02.2014 04:08 9,1 C 6,1 C 85 % 989,0 hPa 0,0 l/m 0 min 2 min 0,0 UV-I 0 W/m 10,3 km/h (2 Bft)
07.02.2014 04:10 9,1 C 6,1 C 86 % 989,0 hPa 0,2 l/m 0 min 2 min 0,0 UV-I 0 W/m 7,7 km/h (2 Bft)
07.02.2014 04:12 9,1 C 6,1 C 86 % 989,0 hPa 0,0 l/m 0 min 2 min 0,0 UV-I 0 W/m 15,4 km/h (3 Bft)
07.02.2014 04:14 9,1 C 6,7 C 87 % 989,3 hPa 0,0 l/m 0 min 2 min 0,0 UV-I 0 W/m 28,3 km/h (4 Bft)
07.02.2014 04:16 9,2 C 6,7 C 87 % 989,1 hPa 0,2 l/m 0 min 2 min 0,0 UV-I 0 W/m 25,7 km/h (4 Bft)
07.02.2014 04:18 9,3 C 6,7 C 88 % 989,1 hPa 0,0 l/m 0 min 2 min 0,0 UV-I 0 W/m 25,7 km/h (4 Bft)
07.02.2014 04:20 9,3 C 6,7 C 88 % 989,1 hPa 0,0 l/m 0 min 2 min 0,0 UV-I 0 W/m 30,9 km/h (5 Bft)
07.02.2014 04:22 9,4 C 6,7 C 88 % 989,2 hPa 0,2 l/m 0 min 2 min 0,0 UV-I 0 W/m 7,7 km/h (2 Bft)
07.02.2014 04:24 9,4 C 6,7 C 88 % 989,2 hPa 0,0 l/m 0 min 2 min 0,0 UV-I 0 W/m 20,6 km/h (4 Bft)
07.02.2014 04:26 9,5 C 6,7 C 88 % 989,0 hPa 0,2 l/m 0 min 2 min 0,0 UV-I 0 W/m 10,3 km/h (2 Bft)
07.02.2014 04:28 9,5 C 6,7 C 88 % 989,0 hPa 0,2 l/m 0 min 2 min 0,0 UV-I 0 W/m 23,2 km/h (4 Bft)
07.02.2014 04:30 9,5 C 7,2 C 89 % 988,9 hPa 0,0 l/m 0 min 2 min 0,0 UV-I 0 W/m 25,7 km/h (4 Bft)
07.02.2014 04:32 9,5 C 7,2 C 89 % 988,8 hPa 0,2 l/m 0 min 2 min 0,0 UV-I 0 W/m 15,4 km/h (3 Bft)
07.02.2014 04:34 9,5 C 7,2 C 89 % 988,8 hPa 0,0 l/m 0 min 2 min 0,0 UV-I 0 W/m 28,3 km/h (4 Bft)
07.02.2014 04:36 9,6 C 7,2 C 90 % 988,6 hPa 0,0 l/m 0 min 2 min 0,0 UV-I 0 W/m 18,0 km/h (3 Bft)
07.02.2014 04:38 9,5 C 7,2 C 90 % 988,5 hPa 0,0 l/m 0 min 2 min 0,0 UV-I 0 W/m 15,4 km/h (3 Bft)
07.02.2014 04:40 9,5 C 6,7 C 90 % 988,4 hPa 0,0 l/m 0 min 2 min 0,0 UV-I 0 W/m 25,7 km/h (4 Bft)
07.02.2014 04:42 9,4 C 7,2 C 90 % 988,4 hPa 0,0 l/m 0 min 2 min 0,0 UV-I 0 W/m 25,7 km/h (4 Bft)
07.02.2014 04:44 9,4 C 7,2 C 90 % 988,4 hPa 0,0 l/m 0 min 2 min 0,0 UV-I 0 W/m 12,9 km/h (3 Bft)
07.02.2014 04:46 9,4 C 7,2 C 90 % 988,5 hPa 0,0 l/m 0 min 2 min 0,0 UV-I 0 W/m 25,7 km/h (4 Bft)
07.02.2014 04:48 9,4 C 7,2 C 91 % 988,6 hPa 0,0 l/m 0 min 0 min 0,0 UV-I 0 W/m 15,4 km/h (3 Bft)
07.02.2014 04:50 9,3 C 7,2 C 91 % 988,7 hPa 0,0 l/m 0 min 0 min 0,0 UV-I 0 W/m 23,2 km/h (4 Bft)
07.02.2014 04:52 9,3 C 7,2 C 91 % 988,7 hPa 0,0 l/m 0 min 0 min 0,0 UV-I 0 W/m 18,0 km/h (3 Bft)
07.02.2014 04:54 9,3 C 6,7 C 91 % 988,6 hPa 0,0 l/m 0 min 0 min 0,0 UV-I 0 W/m 12,9 km/h (3 Bft)
07.02.2014 04:56 9,3 C 6,7 C 91 % 988,6 hPa 0,0 l/m 0 min 0 min 0,0 UV-I 0 W/m 7,7 km/h (2 Bft)
07.02.2014 04:58 9,3 C 6,7 C 91 % 988,5 hPa 0,0 l/m 0 min 0 min 0,0 UV-I 0 W/m 20,6 km/h (4 Bft)
07.02.2014 05:00 9,3 C 6,7 C 91 % 988,5 hPa 0,0 l/m 0 min 0 min 0,0 UV-I 0 W/m 12,9 km/h (3 Bft)
07.02.2014 05:02 9,2 C 6,7 C 91 % 988,5 hPa 0,0 l/m 0 min 0 min 0,0 UV-I 0 W/m 10,3 km/h (2 Bft)
07.02.2014 05:04 9,2 C 6,7 C 91 % 988,5 hPa 0,0 l/m 0 min 0 min 0,0 UV-I 0 W/m 15,4 km/h (3 Bft)
07.02.2014 05:06 9,2 C 6,7 C 91 % 988,4 hPa 0,0 l/m 0 min 0 min 0,0 UV-I 0 W/m 20,6 km/h (4 Bft)
07.02.2014 05:08 9,3 C 6,7 C 91 % 988,3 hPa 0,0 l/m 0 min 0 min 0,0 UV-I 0 W/m 12,9 km/h (3 Bft)
07.02.2014 05:10 9,3 C 6,7 C 91 % 988,3 hPa 0,0 l/m 0 min 0 min 0,0 UV-I 0 W/m 18,0 km/h (3 Bft)
07.02.2014 05:12 9,3 C 6,7 C 91 % 988,2 hPa 0,0 l/m 0 min 0 min 0,0 UV-I 0 W/m 12,9 km/h (3 Bft)
07.02.2014 05:14 9,3 C 6,7 C 90 % 988,2 hPa 0,0 l/m 0 min 0 min 0,0 UV-I 0 W/m 5,1 km/h (1 Bft)
07.02.2014 05:16 9,3 C 6,7 C 90 % 988,2 hPa 0,0 l/m 0 min 0 min 0,0 UV-I 0 W/m 5,1 km/h (1 Bft)
07.02.2014 05:18 9,3 C 6,7 C 90 % 988,3 hPa 0,0 l/m 0 min 0 min 0,0 UV-I 0 W/m 12,9 km/h (3 Bft)
07.02.2014 05:20 9,3 C 6,7 C 90 % 988,2 hPa 0,0 l/m 0 min 0 min 0,0 UV-I 0 W/m 12,9 km/h (3 Bft)
07.02.2014 05:22 9,4 C 6,7 C 90 % 988,2 hPa 0,0 l/m 0 min 0 min 0,0 UV-I 0 W/m 15,4 km/h (3 Bft)
07.02.2014 05:24 9,4 C 6,7 C 90 % 988,3 hPa 0,0 l/m 0 min 0 min 0,0 UV-I 0 W/m 15,4 km/h (3 Bft)
07.02.2014 05:26 9,4 C 6,7 C 89 % 988,3 hPa 0,0 l/m 0 min 0 min 0,0 UV-I 0 W/m 12,9 km/h (3 Bft)
07.02.2014 05:28 9,4 C 6,7 C 89 % 988,3 hPa 0,0 l/m 0 min 0 min 0,0 UV-I 0 W/m 20,6 km/h (4 Bft)
07.02.2014 05:30 9,4 C 6,7 C 89 % 988,4 hPa 0,0 l/m 0 min 0 min 0,0 UV-I 0 W/m 20,6 km/h (4 Bft)
07.02.2014 05:32 9,5 C 6,7 C 88 % 988,2 hPa 0,0 l/m 0 min 0 min 0,0 UV-I 0 W/m 15,4 km/h (3 Bft)
07.02.2014 05:34 9,5 C 6,7 C 88 % 988,3 hPa 0,0 l/m 0 min 0 min 0,0 UV-I 0 W/m 7,7 km/h (2 Bft)
07.02.2014 05:36 9,6 C 6,7 C 88 % 988,1 hPa 0,0 l/m 0 min 0 min 0,0 UV-I 0 W/m 10,3 km/h (2 Bft)
07.02.2014 05:38 9,6 C 6,7 C 88 % 988,1 hPa 0,0 l/m 0 min 0 min 0,0 UV-I 0 W/m 15,4 km/h (3 Bft)
07.02.2014 05:40 9,6 C 6,7 C 88 % 988,1 hPa 0,0 l/m 0 min 0 min 0,0 UV-I 0 W/m 10,3 km/h (2 Bft)
07.02.2014 05:42 9,6 C 6,7 C 88 % 988,1 hPa 0,0 l/m 0 min 0 min 0,0 UV-I 0 W/m 2,6 km/h (1 Bft)
07.02.2014 05:44 9,6 C 6,7 C 87 % 988,1 hPa 0,0 l/m 0 min 0 min 0,0 UV-I 0 W/m 18,0 km/h (3 Bft)
07.02.2014 05:46 9,6 C 6,7 C 87 % 988,1 hPa 0,0 l/m 0 min 0 min 0,0 UV-I 0 W/m 15,4 km/h (3 Bft)
07.02.2014 05:48 9,7 C 6,7 C 87 % 988,2 hPa 0,0 l/m 0 min 0 min 0,0 UV-I 0 W/m 10,3 km/h (2 Bft)
07.02.2014 05:50 9,7 C 6,7 C 87 % 988,3 hPa 0,0 l/m 0 min 0 min 0,0 UV-I 0 W/m 10,3 km/h (2 Bft)
07.02.2014 05:52 9,7 C 6,7 C 86 % 988,3 hPa 0,0 l/m 0 min 0 min 0,0 UV-I 0 W/m 0,0 km/h (0 Bft)
07.02.2014 05:54 9,8 C 6,7 C 86 % 988,3 hPa 0,0 l/m 0 min 0 min 0,0 UV-I 0 W/m 23,2 km/h (4 Bft)
07.02.2014 05:56 9,8 C 6,7 C 86 % 988,2 hPa 0,0 l/m 0 min 0 min 0,0 UV-I 0 W/m 15,4 km/h (3 Bft)
07.02.2014 05:58 9,8 C 6,7 C 85 % 988,2 hPa 0,0 l/m 0 min 0 min 0,0 UV-I 0 W/m 10,3 km/h (2 Bft)
07.02.2014 06:00 9,8 C 6,7 C 85 % 988,4 hPa 0,0 l/m 0 min 0 min 0,0 UV-I 0 W/m 0,0 km/h (0 Bft)
07.02.2014 06:02 9,9 C 6,7 C 84 % 988,4 hPa 0,0 l/m 0 min 0 min 0,0 UV-I 0 W/m 25,7 km/h (4 Bft)
07.02.2014 06:04 9,8 C 6,7 C 84 % 988,5 hPa 0,0 l/m 0 min 0 min 0,0 UV-I 0 W/m 18,0 km/h (3 Bft)
07.02.2014 06:06 9,9 C 6,7 C 84 % 988,6 hPa 0,0 l/m 0 min 0 min 0,0 UV-I 0 W/m 18,0 km/h (3 Bft)
07.02.2014 06:08 9,9 C 6,7 C 84 % 988,7 hPa 0,0 l/m 0 min 0 min 0,0 UV-I 0 W/m 23,2 km/h (4 Bft)
07.02.2014 06:10 9,9 C 6,7 C 83 % 988,6 hPa 0,0 l/m 0 min 0 min 0,0 UV-I 0 W/m 10,3 km/h (2 Bft)
07.02.2014 06:12 10,0 C 7,2 C 83 % 988,5 hPa 0,0 l/m 0 min 0 min 0,0 UV-I 0 W/m 28,3 km/h (4 Bft)
07.02.2014 06:14 10,1 C 6,7 C 83 % 988,4 hPa 0,0 l/m 0 min 0 min 0,0 UV-I 0 W/m 18,0 km/h (3 Bft)
07.02.2014 06:16 10,1 C 7,2 C 82 % 988,5 hPa 0,0 l/m 0 min 0 min 0,0 UV-I 0 W/m 18,0 km/h (3 Bft)
07.02.2014 06:18 10,1 C 7,2 C 82 % 988,5 hPa 0,0 l/m 0 min 0 min 0,0 UV-I 0 W/m 18,0 km/h (3 Bft)
07.02.2014 06:20 10,1 C 7,2 C 82 % 988,4 hPa 0,0 l/m 0 min 0 min 0,0 UV-I 0 W/m 23,2 km/h (4 Bft)
07.02.2014 06:22 10,2 C 7,2 C 81 % 988,4 hPa 0,0 l/m 0 min 0 min 0,0 UV-I 0 W/m 28,3 km/h (4 Bft)
07.02.2014 06:24 10,2 C 7,2 C 81 % 988,2 hPa 0,0 l/m 0 min 0 min 0,0 UV-I 0 W/m 18,0 km/h (3 Bft)
07.02.2014 06:26 10,3 C 7,8 C 81 % 988,1 hPa 0,0 l/m 0 min 0 min 0,0 UV-I 0 W/m 23,2 km/h (4 Bft)
07.02.2014 06:28 10,3 C 7,2 C 81 % 988,1 hPa 0,0 l/m 0 min 0 min 0,0 UV-I 0 W/m 30,9 km/h (5 Bft)
07.02.2014 06:30 10,3 C 7,2 C 81 % 988,0 hPa 0,0 l/m 0 min 0 min 0,0 UV-I 0 W/m 23,2 km/h (4 Bft)
07.02.2014 06:32 10,3 C 7,2 C 80 % 987,8 hPa 0,0 l/m 0 min 0 min 0,0 UV-I 0 W/m 25,7 km/h (4 Bft)
07.02.2014 06:34 10,4 C 7,2 C 80 % 987,8 hPa 0,0 l/m 0 min 0 min 0,0 UV-I 0 W/m 28,3 km/h (4 Bft)
07.02.2014 06:36 10,4 C 7,2 C 80 % 987,7 hPa 0,0 l/m 0 min 0 min 0,0 UV-I 0 W/m 30,9 km/h (5 Bft)
07.02.2014 06:38 10,4 C 7,8 C 79 % 987,7 hPa 0,0 l/m 0 min 0 min 0,0 UV-I 0 W/m 33,5 km/h (5 Bft)
07.02.2014 06:40 10,5 C 7,2 C 79 % 987,2 hPa 0,0 l/m 0 min 0 min 0,0 UV-I 0 W/m 33,5 km/h (5 Bft)
07.02.2014 06:42 10,5 C 7,8 C 79 % 987,1 hPa 0,0 l/m 0 min 0 min 0,0 UV-I 0 W/m 33,5 km/h (5 Bft)
07.02.2014 06:44 10,6 C 7,8 C 78 % 987,2 hPa 0,0 l/m 0 min 0 min 0,0 UV-I 0 W/m 23,2 km/h (4 Bft)
07.02.2014 06:46 10,6 C 7,8 C 78 % 987,4 hPa 0,0 l/m 0 min 0 min 0,0 UV-I 0 W/m 15,4 km/h (3 Bft)
07.02.2014 06:48 10,6 C 7,2 C 78 % 987,5 hPa 0,0 l/m 0 min 0 min 0,0 UV-I 0 W/m 20,6 km/h (4 Bft)
07.02.2014 06:50 10,5 C 7,2 C 79 % 987,7 hPa 0,0 l/m 0 min 0 min 0,0 UV-I 0 W/m 15,4 km/h (3 Bft)
07.02.2014 06:52 10,4 C 7,2 C 79 % 987,8 hPa 0,0 l/m 0 min 0 min 0,0 UV-I 0 W/m 20,6 km/h (4 Bft)
07.02.2014 06:54 10,4 C 7,2 C 79 % 987,7 hPa 0,0 l/m 0 min 0 min 0,0 UV-I 0 W/m 23,2 km/h (4 Bft)
07.02.2014 06:56 10,5 C 7,8 C 79 % 987,3 hPa 0,0 l/m 0 min 0 min 0,0 UV-I 0 W/m 33,5 km/h (5 Bft)
07.02.2014 06:58 10,5 C 7,8 C 79 % 987,2 hPa 0,0 l/m 0 min 0 min 0,0 UV-I 0 W/m 18,0 km/h (3 Bft)
07.02.2014 07:00 10,5 C 7,8 C 79 % 987,3 hPa 0,0 l/m 0 min 0 min 0,0 UV-I 0 W/m 20,6 km/h (4 Bft)
07.02.2014 07:02 10,6 C 7,8 C 78 % 987,3 hPa 0,0 l/m 0 min 0 min 0,0 UV-I 0 W/m 36,0 km/h (5 Bft)
07.02.2014 07:04 10,6 C 7,8 C 78 % 987,1 hPa 0,0 l/m 0 min 0 min 0,0 UV-I 0 W/m 38,6 km/h (5 Bft)
07.02.2014 07:06 10,6 C 7,8 C 78 % 987,0 hPa 0,0 l/m 0 min 0 min 0,0 UV-I 0 W/m 30,9 km/h (5 Bft)
07.02.2014 07:08 10,7 C 7,8 C 78 % 987,3 hPa 0,0 l/m 0 min 0 min 0,0 UV-I 0 W/m 15,4 km/h (3 Bft)
07.02.2014 07:10 10,7 C 7,8 C 78 % 987,6 hPa 0,0 l/m 0 min 0 min 0,0 UV-I 0 W/m 33,5 km/h (5 Bft)
07.02.2014 07:12 10,8 C 7,8 C 77 % 987,5 hPa 0,0 l/m 0 min 0 min 0,0 UV-I 0 W/m 23,2 km/h (4 Bft)
07.02.2014 07:14 10,8 C 8,3 C 77 % 987,3 hPa 0,0 l/m 0 min 0 min 0,0 UV-I 0 W/m 33,5 km/h (5 Bft)
07.02.2014 07:16 10,9 C 8,3 C 77 % 987,2 hPa 0,0 l/m 0 min 0 min 0,0 UV-I 0 W/m 18,0 km/h (3 Bft)
07.02.2014 07:18 10,9 C 8,3 C 77 % 987,2 hPa 0,0 l/m 0 min 0 min 0,0 UV-I 0 W/m 25,7 km/h (4 Bft)
07.02.2014 07:20 10,9 C 8,3 C 76 % 987,0 hPa 0,0 l/m 0 min 0 min 0,0 UV-I 0 W/m 54,1 km/h (7 Bft)
07.02.2014 07:22 11,0 C 8,3 C 76 % 986,9 hPa 0,0 l/m 0 min 0 min 0,0 UV-I 0 W/m 20,6 km/h (4 Bft)
07.02.2014 07:24 11,0 C 8,3 C 76 % 986,7 hPa 0,0 l/m 0 min 0 min 0,0 UV-I 0 W/m 25,7 km/h (4 Bft)
07.02.2014 07:26 10,9 C 7,8 C 76 % 986,8 hPa 0,0 l/m 0 min 0 min 0,0 UV-I 0 W/m 20,6 km/h (4 Bft)
07.02.2014 07:28 10,9 C 7,8 C 76 % 986,9 hPa 0,0 l/m 0 min 0 min 0,0 UV-I 0 W/m 23,2 km/h (4 Bft)
07.02.2014 07:30 10,9 C 7,8 C 76 % 986,9 hPa 0,0 l/m 0 min 0 min 0,0 UV-I 0 W/m 15,4 km/h (3 Bft)
07.02.2014 07:32 10,8 C 7,8 C 76 % 986,8 hPa 0,0 l/m 0 min 0 min 0,0 UV-I 0 W/m 18,0 km/h (3 Bft)
07.02.2014 07:34 10,8 C 7,8 C 76 % 986,9 hPa 0,0 l/m 0 min 0 min 0,0 UV-I 0 W/m 10,3 km/h (2 Bft)
07.02.2014 07:36 10,7 C 7,8 C 77 % 987,0 hPa 0,0 l/m 0 min 0 min 0,0 UV-I 0 W/m 28,3 km/h (4 Bft)
07.02.2014 07:38 10,7 C 7,8 C 77 % 986,9 hPa 0,0 l/m 0 min 0 min 0,0 UV-I 0 W/m 12,9 km/h (3 Bft)
07.02.2014 07:40 10,6 C 7,8 C 77 % 987,0 hPa 0,0 l/m 0 min 0 min 0,0 UV-I 0 W/m 23,2 km/h (4 Bft)
07.02.2014 07:42 10,5 C 7,8 C 77 % 986,9 hPa 0,0 l/m 0 min 0 min 0,0 UV-I 0 W/m 20,6 km/h (4 Bft)
07.02.2014 07:44 10,4 C 7,8 C 78 % 987,0 hPa 0,0 l/m 0 min 0 min 0,0 UV-I 0 W/m 15,4 km/h (3 Bft)
07.02.2014 07:46 10,3 C 7,8 C 78 % 986,9 hPa 0,0 l/m 0 min 0 min 0,0 UV-I 0 W/m 20,6 km/h (4 Bft)
07.02.2014 07:48 10,3 C 7,8 C 78 % 986,8 hPa 0,0 l/m 0 min 0 min 0,0 UV-I 0 W/m 33,5 km/h (5 Bft)
07.02.2014 07:50 10,2 C 7,8 C 78 % 986,6 hPa 0,0 l/m 0 min 0 min 0,0 UV-I 0 W/m 28,3 km/h (4 Bft)
07.02.2014 07:52 10,1 C 7,8 C 78 % 986,7 hPa 0,0 l/m 0 min 0 min 0,0 UV-I 0 W/m 23,2 km/h (4 Bft)
07.02.2014 07:54 10,1 C 7,8 C 78 % 986,6 hPa 0,0 l/m 0 min 0 min 0,0 UV-I 0 W/m 25,7 km/h (4 Bft)
07.02.2014 07:56 10,0 C 7,8 C 78 % 986,6 hPa 0,0 l/m 0 min 0 min 0,0 UV-I 0 W/m 25,7 km/h (4 Bft)
07.02.2014 07:58 10,0 C 7,8 C 78 % 986,6 hPa 0,0 l/m 0 min 0 min 0,0 UV-I 0 W/m 18,0 km/h (3 Bft)
07.02.2014 08:00 9,9 C 7,8 C 79 % 986,5 hPa 0,0 l/m 0 min 0 min 0,0 UV-I 0 W/m 23,2 km/h (4 Bft)
07.02.2014 08:02 9,9 C 7,8 C 79 % 986,5 hPa 0,0 l/m 0 min 0 min 0,0 UV-I 0 W/m 25,7 km/h (4 Bft)
07.02.2014 08:04 9,9 C 7,8 C 79 % 986,6 hPa 0,0 l/m 0 min 0 min 0,0 UV-I 0 W/m 20,6 km/h (4 Bft)
07.02.2014 08:06 9,9 C 7,8 C 79 % 986,5 hPa 0,0 l/m 0 min 0 min 0,0 UV-I 0 W/m 18,0 km/h (3 Bft)
07.02.2014 08:08 9,9 C 7,8 C 79 % 986,4 hPa 0,0 l/m 0 min 0 min 0,0 UV-I 0 W/m 12,9 km/h (3 Bft)
07.02.2014 08:10 9,9 C 7,8 C 79 % 986,4 hPa 0,0 l/m 0 min 0 min 0,0 UV-I 0 W/m 20,6 km/h (4 Bft)
07.02.2014 08:12 9,9 C 7,8 C 79 % 986,4 hPa 0,0 l/m 0 min 0 min 0,0 UV-I 5 W/m 15,4 km/h (3 Bft)
07.02.2014 08:14 9,9 C 7,8 C 79 % 986,4 hPa 0,0 l/m 0 min 0 min 0,0 UV-I 5 W/m 23,2 km/h (4 Bft)
07.02.2014 08:16 9,9 C 7,8 C 79 % 986,4 hPa 0,0 l/m 0 min 0 min 0,0 UV-I 7 W/m 20,6 km/h (4 Bft)
07.02.2014 08:18 10,0 C 7,8 C 79 % 986,5 hPa 0,0 l/m 0 min 0 min 0,0 UV-I 5 W/m 28,3 km/h (4 Bft)
07.02.2014 08:20 10,1 C 8,3 C 78 % 986,4 hPa 0,0 l/m 0 min 0 min 0,0 UV-I 5 W/m 36,0 km/h (5 Bft)
07.02.2014 08:22 10,3 C 8,3 C 78 % 986,7 hPa 0,0 l/m 0 min 0 min 0,0 UV-I 5 W/m 25,7 km/h (4 Bft)
07.02.2014 08:24 10,5 C 8,9 C 77 % 986,4 hPa 0,0 l/m 0 min 0 min 0,0 UV-I 7 W/m 18,0 km/h (3 Bft)
07.02.2014 08:26 10,7 C 8,9 C 77 % 986,4 hPa 0,0 l/m 0 min 0 min 0,0 UV-I 5 W/m 28,3 km/h (4 Bft)
07.02.2014 08:28 10,8 C 8,9 C 76 % 986,3 hPa 0,0 l/m 0 min 0 min 0,0 UV-I 5 W/m 12,9 km/h (3 Bft)
07.02.2014 08:30 10,9 C 8,9 C 75 % 986,2 hPa 0,0 l/m 0 min 0 min 0,0 UV-I 5 W/m 33,5 km/h (5 Bft)
07.02.2014 08:32 11,1 C 8,9 C 75 % 986,0 hPa 0,0 l/m 0 min 0 min 0,0 UV-I 11 W/m 36,0 km/h (5 Bft)
07.02.2014 08:34 11,2 C 8,9 C 75 % 986,0 hPa 0,0 l/m 0 min 0 min 0,0 UV-I 9 W/m 12,9 km/h (3 Bft)
07.02.2014 08:36 11,2 C 8,9 C 74 % 985,9 hPa 0,0 l/m 0 min 0 min 0,0 UV-I 12 W/m 20,6 km/h (4 Bft)
07.02.2014 08:38 11,3 C 8,9 C 74 % 985,9 hPa 0,0 l/m 0 min 0 min 0,0 UV-I 19 W/m 38,6 km/h (5 Bft)
07.02.2014 08:40 11,3 C 8,9 C 74 % 985,8 hPa 0,0 l/m 0 min 0 min 0,0 UV-I 21 W/m 23,2 km/h (4 Bft)
07.02.2014 08:42 11,4 C 9,4 C 74 % 985,8 hPa 0,0 l/m 0 min 0 min 0,0 UV-I 18 W/m 46,3 km/h (6 Bft)
07.02.2014 08:44 11,4 C 8,9 C 73 % 985,9 hPa 0,0 l/m 0 min 0 min 0,0 UV-I 16 W/m 28,3 km/h (4 Bft)
07.02.2014 08:46 11,4 C 9,4 C 73 % 985,6 hPa 0,0 l/m 0 min 0 min 0,0 UV-I 16 W/m 33,5 km/h (5 Bft)
07.02.2014 08:48 11,5 C 9,4 C 73 % 985,7 hPa 0,0 l/m 0 min 0 min 0,0 UV-I 11 W/m 25,7 km/h (4 Bft)
07.02.2014 08:50 11,4 C 9,4 C 73 % 985,5 hPa 0,0 l/m 0 min 0 min 0,0 UV-I 12 W/m 38,6 km/h (5 Bft)
07.02.2014 08:52 11,5 C 8,9 C 73 % 985,5 hPa 0,0 l/m 0 min 0 min 0,0 UV-I 12 W/m 18,0 km/h (3 Bft)
07.02.2014 08:54 11,4 C 8,9 C 73 % 985,5 hPa 0,0 l/m 0 min 0 min 0,0 UV-I 12 W/m 46,3 km/h (6 Bft)
07.02.2014 08:56 11,4 C 8,9 C 73 % 985,5 hPa 0,0 l/m 0 min 0 min 0,0 UV-I 11 W/m 23,2 km/h (4 Bft)
07.02.2014 08:58 11,4 C 8,9 C 73 % 985,6 hPa 0,0 l/m 0 min 0 min 0,0 UV-I 9 W/m 28,3 km/h (4 Bft)
07.02.2014 09:00 11,5 C 9,4 C 73 % 985,6 hPa 0,0 l/m 0 min 0 min 0,0 UV-I 9 W/m 12,9 km/h (3 Bft)
07.02.2014 09:02 11,4 C 9,4 C 74 % 985,7 hPa 0,0 l/m 0 min 0 min 0,0 UV-I 9 W/m 20,6 km/h (4 Bft)
07.02.2014 09:04 11,4 C 8,9 C 74 % 985,6 hPa 0,0 l/m 0 min 0 min 0,0 UV-I 7 W/m 28,3 km/h (4 Bft)
07.02.2014 09:06 11,4 C 8,9 C 74 % 985,5 hPa 0,0 l/m 0 min 0 min 0,0 UV-I 11 W/m 33,5 km/h (5 Bft)
07.02.2014 09:08 11,4 C 9,4 C 74 % 985,9 hPa 0,0 l/m 0 min 0 min 0,0 UV-I 16 W/m 30,9 km/h (5 Bft)
07.02.2014 09:10 11,4 C 9,4 C 74 % 985,6 hPa 0,0 l/m 0 min 0 min 0,0 UV-I 18 W/m 25,7 km/h (4 Bft)
07.02.2014 09:12 11,4 C 9,4 C 74 % 985,6 hPa 0,0 l/m 0 min 0 min 0,0 UV-I 23 W/m 18,0 km/h (3 Bft)
07.02.2014 09:14 11,4 C 9,4 C 74 % 985,6 hPa 0,0 l/m 0 min 0 min 0,0 UV-I 25 W/m 28,3 km/h (4 Bft)
07.02.2014 09:16 11,4 C 9,4 C 74 % 985,6 hPa 0,0 l/m 0 min 0 min 0,0 UV-I 35 W/m 25,7 km/h (4 Bft)
07.02.2014 09:18 11,5 C 9,4 C 74 % 985,6 hPa 0,0 l/m 0 min 0 min 0,0 UV-I 26 W/m 25,7 km/h (4 Bft)
07.02.2014 09:20 11,5 C 9,4 C 74 % 985,5 hPa 0,0 l/m 0 min 0 min 0,0 UV-I 30 W/m 33,5 km/h (5 Bft)
07.02.2014 09:22 11,6 C 9,4 C 74 % 985,5 hPa 0,0 l/m 0 min 0 min 0,0 UV-I 26 W/m 38,6 km/h (5 Bft)
07.02.2014 09:24 11,6 C 9,4 C 74 % 985,5 hPa 0,0 l/m 0 min 0 min 0,0 UV-I 33 W/m 18,0 km/h (3 Bft)
07.02.2014 09:26 11,7 C 9,4 C 74 % 985,4 hPa 0,0 l/m 0 min 0 min 0,0 UV-I 33 W/m 30,9 km/h (5 Bft)
07.02.2014 09:28 11,7 C 10,0 C 73 % 985,5 hPa 0,0 l/m 0 min 0 min 0,0 UV-I 42 W/m 46,3 km/h (6 Bft)
07.02.2014 09:30 11,8 C 10,0 C 73 % 985,6 hPa 0,0 l/m 2 min 0 min 0,0 UV-I 107 W/m 12,9 km/h (3 Bft)
07.02.2014 09:32 11,8 C 10,0 C 74 % 985,6 hPa 0,0 l/m 2 min 0 min 0,0 UV-I 113 W/m 20,6 km/h (4 Bft)
07.02.2014 09:34 11,9 C 10,0 C 73 % 985,6 hPa 0,0 l/m 2 min 0 min 0,0 UV-I 118 W/m 20,6 km/h (4 Bft)
07.02.2014 09:36 11,9 C 10,0 C 74 % 985,6 hPa 0,0 l/m 0 min 0 min 0,0 UV-I 98 W/m 18,0 km/h (3 Bft)
07.02.2014 09:38 12,0 C 10,0 C 73 % 985,5 hPa 0,0 l/m 0 min 0 min 0,0 UV-I 95 W/m 15,4 km/h (3 Bft)
07.02.2014 09:40 12,0 C 10,0 C 73 % 985,6 hPa 0,0 l/m 0 min 0 min 0,0 UV-I 81 W/m 12,9 km/h (3 Bft)
07.02.2014 09:42 12,1 C 10,0 C 73 % 985,7 hPa 0,0 l/m 0 min 0 min 0,0 UV-I 37 W/m 18,0 km/h (3 Bft)
07.02.2014 09:44 12,1 C 10,0 C 73 % 985,7 hPa 0,0 l/m 0 min 0 min 0,0 UV-I 21 W/m 36,0 km/h (5 Bft)
07.02.2014 09:46 12,1 C 10,0 C 73 % 985,5 hPa 0,0 l/m 0 min 0 min 0,0 UV-I 28 W/m 36,0 km/h (5 Bft)
07.02.2014 09:48 12,2 C 10,0 C 73 % 985,6 hPa 0,0 l/m 0 min 0 min 0,0 UV-I 90 W/m 51,5 km/h (7 Bft)
07.02.2014 09:50 12,2 C 10,0 C 73 % 985,7 hPa 0,0 l/m 0 min 0 min 0,0 UV-I 62 W/m 46,3 km/h (6 Bft)
07.02.2014 09:52 12,3 C 10,6 C 72 % 985,8 hPa 0,0 l/m 0 min 0 min 0,0 UV-I 26 W/m 18,0 km/h (3 Bft)
07.02.2014 09:54 12,3 C 10,0 C 72 % 985,5 hPa 0,0 l/m 0 min 0 min 0,0 UV-I 56 W/m 51,5 km/h (7 Bft)
07.02.2014 09:56 12,4 C 10,6 C 72 % 985,6 hPa 0,0 l/m 0 min 0 min 0,0 UV-I 28 W/m 25,7 km/h (4 Bft)
07.02.2014 09:58 12,4 C 10,6 C 72 % 986,1 hPa 0,0 l/m 0 min 0 min 0,0 UV-I 21 W/m 64,4 km/h (8 Bft)
07.02.2014 10:00 12,4 C 10,6 C 72 % 985,9 hPa 0,0 l/m 0 min 0 min 0,0 UV-I 30 W/m 41,2 km/h (6 Bft)
07.02.2014 10:02 12,4 C 10,6 C 72 % 985,9 hPa 0,0 l/m 0 min 0 min 0,0 UV-I 35 W/m 38,6 km/h (5 Bft)
07.02.2014 10:04 12,4 C 10,6 C 72 % 985,8 hPa 0,0 l/m 0 min 0 min 0,0 UV-I 90 W/m 30,9 km/h (5 Bft)
07.02.2014 10:06 12,4 C 10,6 C 72 % 985,9 hPa 0,0 l/m 0 min 0 min 0,0 UV-I 19 W/m 48,9 km/h (6 Bft)
07.02.2014 10:08 12,4 C 10,6 C 72 % 985,8 hPa 0,0 l/m 0 min 0 min 0,0 UV-I 90 W/m 43,8 km/h (6 Bft)
07.02.2014 10:10 12,4 C 10,0 C 71 % 985,8 hPa 0,0 l/m 0 min 0 min 0,0 UV-I 39 W/m 54,1 km/h (7 Bft)
07.02.2014 10:12 12,4 C 10,0 C 71 % 986,1 hPa 0,0 l/m 0 min 0 min 0,0 UV-I 54 W/m 51,5 km/h (7 Bft)
07.02.2014 10:14 12,4 C 10,0 C 72 % 985,7 hPa 0,0 l/m 0 min 0 min 0,0 UV-I 42 W/m 54,1 km/h (7 Bft)
07.02.2014 10:16 12,3 C 10,6 C 72 % 985,9 hPa 0,0 l/m 0 min 0 min 0,0 UV-I 76 W/m 43,8 km/h (6 Bft)
07.02.2014 10:18 12,3 C 10,6 C 72 % 986,3 hPa 0,0 l/m 2 min 0 min 0,0 UV-I 241 W/m 61,8 km/h (7 Bft)
07.02.2014 10:20 12,3 C 10,0 C 73 % 985,9 hPa 0,0 l/m 2 min 2 min 0,0 UV-I 230 W/m 48,9 km/h (6 Bft)
07.02.2014 10:22 12,2 C 10,0 C 73 % 986,0 hPa 0,0 l/m 0 min 2 min 0,0 UV-I 118 W/m 54,1 km/h (7 Bft)
07.02.2014 10:24 12,1 C 10,0 C 73 % 986,4 hPa 0,0 l/m 2 min 2 min 0,0 UV-I 178 W/m 74,7 km/h (8 Bft)
07.02.2014 10:26 12,1 C 10,6 C 73 % 986,4 hPa 0,0 l/m 2 min 2 min 0,0 UV-I 373 W/m 48,9 km/h (6 Bft)
07.02.2014 10:28 12,1 C 10,6 C 73 % 986,0 hPa 0,0 l/m 0 min 2 min 0,0 UV-I 144 W/m 41,2 km/h (6 Bft)
07.02.2014 10:30 12,1 C 10,6 C 73 % 986,5 hPa 0,0 l/m 2 min 2 min 0,0 UV-I 179 W/m 54,1 km/h (7 Bft)
07.02.2014 10:32 12,1 C 10,6 C 73 % 986,4 hPa 0,0 l/m 2 min 2 min 0,0 UV-I 230 W/m 43,8 km/h (6 Bft)
07.02.2014 10:34 12,1 C 10,6 C 74 % 986,3 hPa 0,0 l/m 2 min 2 min 0,0 UV-I 195 W/m 25,7 km/h (4 Bft)
07.02.2014 10:36 12,0 C 10,6 C 74 % 986,4 hPa 0,0 l/m 2 min 2 min 0,0 UV-I 236 W/m 38,6 km/h (5 Bft)
07.02.2014 10:38 11,9 C 10,0 C 74 % 986,4 hPa 0,0 l/m 2 min 2 min 0,0 UV-I 258 W/m 56,6 km/h (7 Bft)
07.02.2014 10:40 11,9 C 10,0 C 75 % 986,6 hPa 0,0 l/m 2 min 2 min 0,0 UV-I 229 W/m 51,5 km/h (7 Bft)
07.02.2014 10:42 11,9 C 10,0 C 75 % 986,5 hPa 0,0 l/m 2 min 2 min 0,0 UV-I 211 W/m 41,2 km/h (6 Bft)
07.02.2014 10:44 11,9 C 10,0 C 75 % 986,8 hPa 0,2 l/m 2 min 2 min 0,0 UV-I 176 W/m 54,1 km/h (7 Bft)
07.02.2014 10:46 11,8 C 10,0 C 76 % 986,6 hPa 0,0 l/m 0 min 2 min 0,0 UV-I 162 W/m 25,7 km/h (4 Bft)
07.02.2014 10:48 11,7 C 10,0 C 77 % 986,8 hPa 0,0 l/m 0 min 2 min 0,0 UV-I 160 W/m 38,6 km/h (5 Bft)
07.02.2014 10:50 11,6 C 10,0 C 77 % 986,7 hPa 0,0 l/m 0 min 2 min 0,0 UV-I 155 W/m 54,1 km/h (7 Bft)
07.02.2014 10:52 11,4 C 10,0 C 77 % 987,0 hPa 0,0 l/m 0 min 2 min 0,0 UV-I 169 W/m 43,8 km/h (6 Bft)
07.02.2014 10:54 11,3 C 10,0 C 78 % 987,0 hPa 0,0 l/m 2 min 2 min 0,0 UV-I 216 W/m 54,1 km/h (7 Bft)
07.02.2014 10:56 11,3 C 10,0 C 78 % 987,0 hPa 0,0 l/m 2 min 2 min 0,0 UV-I 225 W/m 43,8 km/h (6 Bft)
07.02.2014 10:58 11,3 C 10,0 C 78 % 987,2 hPa 0,0 l/m 2 min 2 min 0,0 UV-I 204 W/m 33,5 km/h (5 Bft)
07.02.2014 11:00 11,3 C 10,0 C 78 % 987,2 hPa 0,0 l/m 0 min 2 min 0,0 UV-I 172 W/m 43,8 km/h (6 Bft)
07.02.2014 11:02 11,2 C 10,0 C 77 % 987,5 hPa 0,0 l/m 0 min 2 min 0,0 UV-I 179 W/m 61,8 km/h (7 Bft)
07.02.2014 11:04 11,2 C 10,0 C 78 % 987,3 hPa 0,0 l/m 0 min 2 min 0,0 UV-I 148 W/m 43,8 km/h (6 Bft)
07.02.2014 11:06 11,2 C 9,4 C 77 % 987,3 hPa 0,0 l/m 0 min 2 min 0,0 UV-I 162 W/m 43,8 km/h (6 Bft)
07.02.2014 11:08 11,1 C 9,4 C 78 % 987,8 hPa 0,0 l/m 0 min 2 min 0,0 UV-I 155 W/m 59,2 km/h (7 Bft)
07.02.2014 11:10 11,1 C 9,4 C 78 % 987,7 hPa 0,0 l/m 0 min 2 min 0,0 UV-I 163 W/m 46,3 km/h (6 Bft)
07.02.2014 11:12 11,0 C 9,4 C 79 % 987,7 hPa 0,0 l/m 0 min 2 min 0,0 UV-I 158 W/m 56,6 km/h (7 Bft)
07.02.2014 11:14 11,0 C 9,4 C 78 % 987,7 hPa 0,0 l/m 0 min 2 min 0,0 UV-I 165 W/m 38,6 km/h (5 Bft)
07.02.2014 11:16 11,0 C 9,4 C 78 % 987,7 hPa 0,0 l/m 0 min 2 min 0,0 UV-I 172 W/m 30,9 km/h (5 Bft)
07.02.2014 11:18 10,9 C 9,4 C 79 % 987,6 hPa 0,0 l/m 0 min 2 min 0,0 UV-I 171 W/m 41,2 km/h (6 Bft)
07.02.2014 11:20 10,9 C 9,4 C 78 % 987,8 hPa 0,0 l/m 0 min 2 min 0,0 UV-I 162 W/m 61,8 km/h (7 Bft)
07.02.2014 11:22 10,9 C 9,4 C 79 % 987,9 hPa 0,0 l/m 0 min 2 min 0,0 UV-I 134 W/m 41,2 km/h (6 Bft)
07.02.2014 11:24 10,8 C 8,9 C 79 % 987,9 hPa 0,0 l/m 0 min 2 min 0,0 UV-I 137 W/m 51,5 km/h (7 Bft)
07.02.2014 11:26 10,7 C 8,3 C 80 % 988,4 hPa 0,0 l/m 0 min 2 min 0,0 UV-I 86 W/m 56,6 km/h (7 Bft)
07.02.2014 11:28 10,5 C 7,8 C 81 % 988,2 hPa 0,0 l/m 0 min 2 min 0,0 UV-I 93 W/m 48,9 km/h (6 Bft)
07.02.2014 11:30 10,3 C 7,8 C 82 % 988,3 hPa 0,0 l/m 0 min 2 min 0,0 UV-I 102 W/m 30,9 km/h (5 Bft)
07.02.2014 11:32 10,1 C 7,8 C 83 % 988,4 hPa 0,0 l/m 0 min 2 min 0,0 UV-I 97 W/m 46,3 km/h (6 Bft)
07.02.2014 11:34 9,9 C 7,8 C 84 % 988,5 hPa 0,0 l/m 0 min 2 min 0,0 UV-I 98 W/m 33,5 km/h (5 Bft)
07.02.2014 11:36 9,8 C 7,8 C 85 % 988,5 hPa 0,0 l/m 0 min 2 min 0,0 UV-I 127 W/m 43,8 km/h (6 Bft)
07.02.2014 11:38 9,7 C 7,8 C 86 % 988,6 hPa 0,0 l/m 0 min 2 min 0,0 UV-I 137 W/m 51,5 km/h (7 Bft)
07.02.2014 11:40 9,6 C 7,8 C 86 % 988,5 hPa 0,0 l/m 0 min 2 min 0,0 UV-I 172 W/m 25,7 km/h (4 Bft)
07.02.2014 11:42 9,6 C 8,3 C 87 % 988,4 hPa 0,0 l/m 0 min 2 min 0,0 UV-I 174 W/m 30,9 km/h (5 Bft)
07.02.2014 11:44 9,6 C 8,3 C 87 % 988,7 hPa 0,0 l/m 0 min 2 min 0,0 UV-I 153 W/m 41,2 km/h (6 Bft)
07.02.2014 11:46 9,6 C 7,8 C 87 % 988,5 hPa 0,0 l/m 0 min 2 min 0,0 UV-I 107 W/m 41,2 km/h (6 Bft)
07.02.2014 11:48 9,6 C 7,8 C 87 % 988,8 hPa 0,0 l/m 0 min 2 min 0,0 UV-I 72 W/m 36,0 km/h (5 Bft)
07.02.2014 11:50 9,5 C 7,8 C 87 % 988,7 hPa 0,0 l/m 0 min 2 min 0,0 UV-I 69 W/m 36,0 km/h (5 Bft)
07.02.2014 11:52 9,4 C 7,2 C 87 % 989,0 hPa 0,0 l/m 0 min 2 min 0,0 UV-I 76 W/m 48,9 km/h (6 Bft)
07.02.2014 11:54 9,3 C 7,2 C 87 % 988,9 hPa 0,0 l/m 0 min 2 min 0,0 UV-I 76 W/m 28,3 km/h (4 Bft)
07.02.2014 11:56 9,3 C 7,2 C 88 % 989,0 hPa 0,0 l/m 0 min 2 min 0,0 UV-I 77 W/m 38,6 km/h (5 Bft)
07.02.2014 11:58 9,2 C 7,2 C 88 % 989,0 hPa 0,0 l/m 0 min 2 min 0,0 UV-I 84 W/m 33,5 km/h (5 Bft)
07.02.2014 12:00 9,1 C 7,2 C 88 % 989,0 hPa 0,0 l/m 0 min 2 min 0,0 UV-I 102 W/m 33,5 km/h (5 Bft)
07.02.2014 12:02 9,1 C 7,2 C 88 % 989,0 hPa 0,0 l/m 0 min 2 min 0,0 UV-I 100 W/m 41,2 km/h (6 Bft)
07.02.2014 12:04 9,1 C 7,2 C 88 % 989,1 hPa 0,0 l/m 0 min 2 min 0,0 UV-I 118 W/m 48,9 km/h (6 Bft)
07.02.2014 12:06 9,1 C 7,2 C 87 % 989,1 hPa 0,0 l/m 0 min 2 min 0,0 UV-I 114 W/m 23,2 km/h (4 Bft)
07.02.2014 12:08 9,1 C 7,2 C 87 % 989,0 hPa 0,0 l/m 0 min 2 min 0,0 UV-I 79 W/m 23,2 km/h (4 Bft)
07.02.2014 12:10 9,1 C 7,2 C 87 % 989,0 hPa 0,0 l/m 0 min 2 min 0,0 UV-I 91 W/m 28,3 km/h (4 Bft)
07.02.2014 12:12 9,1 C 7,2 C 87 % 989,4 hPa 0,0 l/m 0 min 2 min 0,0 UV-I 79 W/m 41,2 km/h (6 Bft)
07.02.2014 12:14 9,1 C 7,2 C 86 % 989,6 hPa 0,0 l/m 0 min 2 min 0,0 UV-I 81 W/m 38,6 km/h (5 Bft)
07.02.2014 12:16 9,1 C 7,2 C 86 % 989,3 hPa 0,0 l/m 0 min 2 min 0,0 UV-I 67 W/m 36,0 km/h (5 Bft)
07.02.2014 12:18 9,1 C 7,2 C 85 % 989,2 hPa 0,0 l/m 0 min 2 min 0,0 UV-I 67 W/m 23,2 km/h (4 Bft)
07.02.2014 12:20 9,1 C 7,2 C 85 % 989,7 hPa 0,0 l/m 0 min 0 min 0,0 UV-I 63 W/m 54,1 km/h (7 Bft)
07.02.2014 12:22 9,1 C 7,2 C 84 % 989,5 hPa 0,0 l/m 0 min 2 min 0,0 UV-I 62 W/m 54,1 km/h (7 Bft)
07.02.2014 12:24 9,1 C 7,2 C 84 % 989,5 hPa 0,0 l/m 0 min 0 min 0,0 UV-I 60 W/m 33,5 km/h (5 Bft)
07.02.2014 12:26 9,1 C 7,2 C 83 % 989,7 hPa 0,0 l/m 0 min 0 min 0,0 UV-I 60 W/m 43,8 km/h (6 Bft)
07.02.2014 12:28 9,0 C 7,2 C 83 % 989,9 hPa 0,0 l/m 0 min 2 min 0,0 UV-I 58 W/m 41,2 km/h (6 Bft)
07.02.2014 12:30 9,0 C 7,2 C 83 % 989,7 hPa 0,0 l/m 0 min 2 min 0,0 UV-I 60 W/m 54,1 km/h (7 Bft)
07.02.2014 12:32 9,0 C 7,8 C 83 % 989,8 hPa 0,0 l/m 0 min 0 min 0,0 UV-I 46 W/m 43,8 km/h (6 Bft)
07.02.2014 12:34 9,0 C 7,8 C 83 % 989,8 hPa 0,0 l/m 0 min 0 min 0,0 UV-I 40 W/m 56,6 km/h (7 Bft)
07.02.2014 12:36 8,9 C 7,8 C 83 % 989,9 hPa 0,0 l/m 0 min 0 min 0,0 UV-I 42 W/m 46,3 km/h (6 Bft)
07.02.2014 12:38 8,9 C 7,2 C 83 % 990,2 hPa 0,0 l/m 0 min 0 min 0,0 UV-I 37 W/m 69,5 km/h (8 Bft)
07.02.2014 12:40 8,9 C 7,2 C 83 % 990,2 hPa 0,0 l/m 0 min 0 min 0,0 UV-I 39 W/m 54,1 km/h (7 Bft)
07.02.2014 12:42 8,9 C 7,2 C 83 % 990,0 hPa 0,0 l/m 0 min 0 min 0,0 UV-I 40 W/m 43,8 km/h (6 Bft)
07.02.2014 12:44 8,8 C 7,2 C 83 % 990,5 hPa 0,0 l/m 0 min 0 min 0,0 UV-I 51 W/m 85,0 km/h (9 Bft)
07.02.2014 12:46 8,8 C 7,2 C 83 % 989,9 hPa 0,0 l/m 0 min 0 min 0,0 UV-I 58 W/m 61,8 km/h (7 Bft)
07.02.2014 12:48 8,7 C 7,2 C 83 % 990,1 hPa 0,0 l/m 0 min 0 min 0,0 UV-I 62 W/m 48,9 km/h (6 Bft)
07.02.2014 12:50 8,7 C 7,2 C 84 % 990,0 hPa 0,0 l/m 0 min 0 min 0,0 UV-I 86 W/m 54,1 km/h (7 Bft)
07.02.2014 12:52 8,6 C 7,2 C 84 % 990,3 hPa 0,0 l/m 0 min 0 min 0,0 UV-I 72 W/m 51,5 km/h (7 Bft)
07.02.2014 12:54 8,6 C 7,2 C 84 % 990,0 hPa 0,0 l/m 0 min 0 min 0,0 UV-I 67 W/m 41,2 km/h (6 Bft)
07.02.2014 12:56 8,6 C 7,2 C 84 % 990,2 hPa 0,0 l/m 0 min 0 min 0,0 UV-I 47 W/m 33,5 km/h (5 Bft)
07.02.2014 12:58 8,6 C 7,2 C 84 % 990,4 hPa 0,0 l/m 0 min 0 min 0,0 UV-I 46 W/m 33,5 km/h (5 Bft)
07.02.2014 13:00 8,6 C 7,2 C 84 % 990,3 hPa 0,0 l/m 0 min 0 min 0,0 UV-I 46 W/m 61,8 km/h (7 Bft)
07.02.2014 13:02 8,6 C 7,2 C 84 % 990,4 hPa 0,0 l/m 0 min 0 min 0,0 UV-I 44 W/m 25,7 km/h (4 Bft)
07.02.2014 13:04 8,6 C 7,2 C 84 % 990,5 hPa 0,0 l/m 0 min 0 min 0,0 UV-I 42 W/m 20,6 km/h (4 Bft)
07.02.2014 13:06 8,5 C 7,2 C 84 % 990,5 hPa 0,0 l/m 0 min 2 min 0,0 UV-I 39 W/m 41,2 km/h (6 Bft)
07.02.2014 13:08 8,4 C 7,2 C 84 % 991,0 hPa 0,0 l/m 0 min 2 min 0,0 UV-I 39 W/m 33,5 km/h (5 Bft)
07.02.2014 13:10 8,4 C 7,2 C 85 % 990,7 hPa 0,0 l/m 0 min 0 min 0,0 UV-I 35 W/m 36,0 km/h (5 Bft)
07.02.2014 13:12 8,4 C 7,2 C 85 % 990,9 hPa 0,0 l/m 0 min 2 min 0,0 UV-I 42 W/m 30,9 km/h (5 Bft)
07.02.2014 13:14 8,3 C 6,7 C 85 % 990,7 hPa 0,0 l/m 0 min 0 min 0,0 UV-I 47 W/m 33,5 km/h (5 Bft)
07.02.2014 13:16 8,3 C 7,2 C 85 % 990,8 hPa 0,0 l/m 0 min 0 min 0,0 UV-I 53 W/m 33,5 km/h (5 Bft)
07.02.2014 13:18 8,3 C 7,2 C 85 % 991,5 hPa 0,0 l/m 0 min 0 min 0,0 UV-I 47 W/m 51,5 km/h (7 Bft)
07.02.2014 13:20 8,2 C 7,2 C 85 % 991,2 hPa 0,0 l/m 0 min 0 min 0,0 UV-I 35 W/m 41,2 km/h (6 Bft)
07.02.2014 13:22 8,2 C 7,2 C 86 % 991,1 hPa 0,0 l/m 0 min 0 min 0,0 UV-I 35 W/m 36,0 km/h (5 Bft)
07.02.2014 13:24 8,2 C 7,2 C 86 % 991,3 hPa 0,0 l/m 0 min 0 min 0,0 UV-I 37 W/m 36,0 km/h (5 Bft)
07.02.2014 13:26 8,2 C 7,2 C 86 % 991,2 hPa 0,0 l/m 0 min 0 min 0,0 UV-I 35 W/m 59,2 km/h (7 Bft)
07.02.2014 13:28 8,2 C 7,2 C 85 % 991,4 hPa 0,0 l/m 0 min 0 min 0,0 UV-I 35 W/m 30,9 km/h (5 Bft)
07.02.2014 13:30 8,2 C 6,7 C 85 % 991,4 hPa 0,0 l/m 0 min 2 min 0,0 UV-I 44 W/m 46,3 km/h (6 Bft)
07.02.2014 13:32 8,2 C 6,7 C 85 % 991,3 hPa 0,0 l/m 0 min 2 min 0,0 UV-I 49 W/m 48,9 km/h (6 Bft)
07.02.2014 13:34 8,2 C 6,7 C 86 % 991,5 hPa 0,0 l/m 0 min 2 min 0,0 UV-I 46 W/m 43,8 km/h (6 Bft)
07.02.2014 13:36 8,1 C 6,1 C 86 % 991,4 hPa 0,0 l/m 0 min 2 min 0,0 UV-I 40 W/m 33,5 km/h (5 Bft)
07.02.2014 13:38 8,0 C 6,1 C 87 % 991,5 hPa 0,2 l/m 0 min 2 min 0,0 UV-I 54 W/m 23,2 km/h (4 Bft)
07.02.2014 13:40 7,9 C 5,6 C 88 % 991,7 hPa 0,0 l/m 0 min 2 min 0,0 UV-I 56 W/m 41,2 km/h (6 Bft)
07.02.2014 13:42 7,8 C 5,6 C 88 % 991,7 hPa 0,0 l/m 0 min 2 min 0,0 UV-I 40 W/m 30,9 km/h (5 Bft)
07.02.2014 13:44 7,7 C 5,6 C 88 % 991,8 hPa 0,0 l/m 0 min 2 min 0,0 UV-I 42 W/m 18,0 km/h (3 Bft)
07.02.2014 13:46 7,7 C 5,6 C 89 % 991,9 hPa 0,0 l/m 0 min 2 min 0,0 UV-I 47 W/m 36,0 km/h (5 Bft)
07.02.2014 13:48 7,6 C 5,6 C 89 % 991,9 hPa 0,0 l/m 0 min 2 min 0,0 UV-I 46 W/m 28,3 km/h (4 Bft)
07.02.2014 13:50 7,5 C 5,6 C 89 % 992,1 hPa 0,0 l/m 0 min 2 min 0,0 UV-I 42 W/m 38,6 km/h (5 Bft)
07.02.2014 13:52 7,5 C 5,6 C 90 % 992,1 hPa 0,0 l/m 0 min 2 min 0,0 UV-I 39 W/m 36,0 km/h (5 Bft)
07.02.2014 13:54 7,4 C 5,6 C 90 % 992,2 hPa 0,0 l/m 0 min 2 min 0,0 UV-I 39 W/m 23,2 km/h (4 Bft)
07.02.2014 13:56 7,4 C 5,6 C 90 % 992,1 hPa 0,0 l/m 0 min 2 min 0,0 UV-I 37 W/m 28,3 km/h (4 Bft)
07.02.2014 13:58 7,4 C 5,6 C 90 % 992,1 hPa 0,0 l/m 0 min 2 min 0,0 UV-I 37 W/m 23,2 km/h (4 Bft)
07.02.2014 14:00 7,3 C 5,6 C 90 % 992,3 hPa 0,0 l/m 0 min 2 min 0,0 UV-I 44 W/m 33,5 km/h (5 Bft)
07.02.2014 14:02 7,3 C 5,6 C 90 % 992,2 hPa 0,2 l/m 0 min 2 min 0,0 UV-I 40 W/m 56,6 km/h (7 Bft)
07.02.2014 14:04 7,3 C 5,6 C 90 % 992,3 hPa 0,0 l/m 0 min 2 min 0,0 UV-I 32 W/m 33,5 km/h (5 Bft)
07.02.2014 14:06 7,3 C 5,6 C 90 % 992,5 hPa 0,0 l/m 0 min 2 min 0,0 UV-I 39 W/m 28,3 km/h (4 Bft)
07.02.2014 14:08 7,3 C 5,6 C 90 % 992,4 hPa 0,0 l/m 0 min 2 min 0,0 UV-I 35 W/m 20,6 km/h (4 Bft)
07.02.2014 14:10 7,3 C 5,6 C 90 % 992,8 hPa 0,0 l/m 0 min 2 min 0,0 UV-I 46 W/m 25,7 km/h (4 Bft)
07.02.2014 14:12 7,2 C 5,6 C 91 % 992,5 hPa 0,0 l/m 0 min 2 min 0,0 UV-I 49 W/m 41,2 km/h (6 Bft)
07.02.2014 14:14 7,2 C 5,6 C 91 % 992,8 hPa 0,0 l/m 0 min 2 min 0,0 UV-I 49 W/m 43,8 km/h (6 Bft)
07.02.2014 14:16 7,2 C 5,6 C 91 % 992,8 hPa 0,0 l/m 0 min 2 min 0,0 UV-I 62 W/m 43,8 km/h (6 Bft)
07.02.2014 14:18 7,2 C 5,6 C 91 % 992,8 hPa 0,0 l/m 0 min 2 min 0,0 UV-I 62 W/m 43,8 km/h (6 Bft)
07.02.2014 14:20 7,2 C 5,6 C 91 % 992,5 hPa 0,0 l/m 0 min 2 min 0,0 UV-I 81 W/m 48,9 km/h (6 Bft)
07.02.2014 14:22 7,2 C 5,6 C 91 % 993,0 hPa 0,0 l/m 0 min 2 min 0,0 UV-I 84 W/m 28,3 km/h (4 Bft)
07.02.2014 14:24 7,2 C 5,6 C 91 % 992,9 hPa 0,0 l/m 0 min 2 min 0,0 UV-I 84 W/m 28,3 km/h (4 Bft)
07.02.2014 14:26 7,2 C 5,6 C 91 % 993,0 hPa 0,0 l/m 0 min 2 min 0,0 UV-I 84 W/m 43,8 km/h (6 Bft)
07.02.2014 14:28 7,2 C 5,6 C 91 % 993,0 hPa 0,0 l/m 0 min 2 min 0,0 UV-I 74 W/m 25,7 km/h (4 Bft)
07.02.2014 14:30 7,1 C 5,6 C 91 % 993,3 hPa 0,0 l/m 0 min 2 min 0,0 UV-I 72 W/m 23,2 km/h (4 Bft)
07.02.2014 14:32 7,1 C 5,6 C 91 % 993,3 hPa 0,0 l/m 0 min 2 min 0,0 UV-I 53 W/m 28,3 km/h (4 Bft)
07.02.2014 14:34 7,1 C 5,6 C 91 % 993,4 hPa 0,0 l/m 0 min 2 min 0,0 UV-I 54 W/m 33,5 km/h (5 Bft)
07.02.2014 14:36 7,1 C 5,6 C 91 % 993,6 hPa 0,0 l/m 0 min 2 min 0,0 UV-I 39 W/m 30,9 km/h (5 Bft)
07.02.2014 14:38 7,1 C 5,6 C 91 % 993,6 hPa 0,2 l/m 0 min 2 min 0,0 UV-I 40 W/m 25,7 km/h (4 Bft)
07.02.2014 14:40 7,0 C 5,0 C 91 % 994,0 hPa 0,0 l/m 0 min 2 min 0,0 UV-I 39 W/m 36,0 km/h (5 Bft)
07.02.2014 14:42 6,9 C 5,0 C 91 % 994,1 hPa 0,0 l/m 0 min 2 min 0,0 UV-I 35 W/m 23,2 km/h (4 Bft)
07.02.2014 14:44 6,9 C 5,0 C 92 % 994,0 hPa 0,2 l/m 0 min 2 min 0,0 UV-I 32 W/m 30,9 km/h (5 Bft)
07.02.2014 14:46 6,9 C 5,0 C 92 % 994,3 hPa 0,0 l/m 0 min 2 min 0,0 UV-I 30 W/m 25,7 km/h (4 Bft)
07.02.2014 14:48 6,8 C 5,0 C 92 % 994,2 hPa 0,0 l/m 0 min 2 min 0,0 UV-I 23 W/m 36,0 km/h (5 Bft)
07.02.2014 14:50 6,8 C 5,0 C 92 % 994,2 hPa 0,0 l/m 0 min 2 min 0,0 UV-I 33 W/m 38,6 km/h (5 Bft)
07.02.2014 14:52 6,8 C 5,0 C 92 % 994,3 hPa 0,2 l/m 0 min 2 min 0,0 UV-I 21 W/m 23,2 km/h (4 Bft)
07.02.2014 14:54 6,7 C 5,0 C 92 % 994,5 hPa 0,0 l/m 0 min 2 min 0,0 UV-I 21 W/m 28,3 km/h (4 Bft)
07.02.2014 14:56 6,7 C 5,0 C 92 % 994,3 hPa 0,2 l/m 0 min 2 min 0,0 UV-I 23 W/m 18,0 km/h (3 Bft)
07.02.2014 14:58 6,7 C 5,0 C 93 % 994,4 hPa 0,0 l/m 0 min 2 min 0,0 UV-I 28 W/m 30,9 km/h (5 Bft)
07.02.2014 15:00 6,6 C 5,0 C 93 % 994,5 hPa 0,0 l/m 0 min 2 min 0,0 UV-I 25 W/m 25,7 km/h (4 Bft)
07.02.2014 15:02 6,6 C 5,0 C 93 % 994,5 hPa 0,0 l/m 0 min 2 min 0,0 UV-I 30 W/m 20,6 km/h (4 Bft)
07.02.2014 15:04 6,6 C 5,0 C 93 % 994,8 hPa 0,2 l/m 0 min 2 min 0,0 UV-I 23 W/m 18,0 km/h (3 Bft)
07.02.2014 15:06 6,5 C 5,0 C 93 % 994,9 hPa 0,0 l/m 0 min 2 min 0,0 UV-I 23 W/m 36,0 km/h (5 Bft)
07.02.2014 15:08 6,4 C 5,0 C 93 % 994,9 hPa 0,0 l/m 0 min 2 min 0,0 UV-I 30 W/m 18,0 km/h (3 Bft)
07.02.2014 15:10 6,4 C 5,0 C 93 % 994,9 hPa 0,0 l/m 0 min 2 min 0,0 UV-I 51 W/m 30,9 km/h (5 Bft)
07.02.2014 15:12 6,4 C 5,0 C 93 % 995,0 hPa 0,0 l/m 0 min 2 min 0,0 UV-I 58 W/m 33,5 km/h (5 Bft)
07.02.2014 15:14 6,3 C 5,0 C 93 % 995,2 hPa 0,0 l/m 0 min 2 min 0,0 UV-I 53 W/m 28,3 km/h (4 Bft)
07.02.2014 15:16 6,3 C 5,0 C 93 % 995,2 hPa 0,0 l/m 0 min 2 min 0,0 UV-I 47 W/m 20,6 km/h (4 Bft)
07.02.2014 15:18 6,3 C 4,4 C 93 % 995,4 hPa 0,2 l/m 0 min 2 min 0,0 UV-I 56 W/m 28,3 km/h (4 Bft)
07.02.2014 15:20 6,3 C 4,4 C 93 % 995,4 hPa 0,0 l/m 0 min 2 min 0,0 UV-I 56 W/m 23,2 km/h (4 Bft)
07.02.2014 15:22 6,2 C 4,4 C 93 % 995,5 hPa 0,0 l/m 0 min 0 min 0,0 UV-I 40 W/m 25,7 km/h (4 Bft)
07.02.2014 15:24 6,2 C 4,4 C 93 % 995,5 hPa 0,0 l/m 0 min 2 min 0,0 UV-I 42 W/m 25,7 km/h (4 Bft)
07.02.2014 15:26 6,2 C 4,4 C 93 % 995,8 hPa 0,0 l/m 0 min 2 min 0,0 UV-I 47 W/m 33,5 km/h (5 Bft)
07.02.2014 15:28 6,2 C 4,4 C 93 % 995,8 hPa 0,0 l/m 0 min 2 min 0,0 UV-I 37 W/m 28,3 km/h (4 Bft)
07.02.2014 15:30 6,1 C 4,4 C 93 % 996,0 hPa 0,0 l/m 0 min 2 min 0,0 UV-I 47 W/m 25,7 km/h (4 Bft)
07.02.2014 15:32 6,1 C 4,4 C 93 % 995,9 hPa 0,0 l/m 0 min 0 min 0,0 UV-I 46 W/m 28,3 km/h (4 Bft)
07.02.2014 15:34 6,1 C 4,4 C 93 % 996,0 hPa 0,0 l/m 0 min 2 min 0,0 UV-I 37 W/m 36,0 km/h (5 Bft)
07.02.2014 15:36 6,0 C 4,4 C 93 % 996,2 hPa 0,0 l/m 0 min 2 min 0,0 UV-I 40 W/m 36,0 km/h (5 Bft)
07.02.2014 15:38 6,0 C 4,4 C 93 % 996,4 hPa 0,0 l/m 0 min 2 min 0,0 UV-I 46 W/m 33,5 km/h (5 Bft)
07.02.2014 15:40 5,9 C 4,4 C 93 % 996,2 hPa 0,0 l/m 0 min 2 min 0,0 UV-I 39 W/m 25,7 km/h (4 Bft)
07.02.2014 15:42 5,9 C 4,4 C 93 % 996,1 hPa 0,0 l/m 0 min 2 min 0,0 UV-I 35 W/m 30,9 km/h (5 Bft)
07.02.2014 15:44 5,9 C 4,4 C 93 % 996,2 hPa 0,0 l/m 0 min 2 min 0,0 UV-I 33 W/m 25,7 km/h (4 Bft)
07.02.2014 15:46 5,9 C 4,4 C 93 % 996,3 hPa 0,0 l/m 0 min 2 min 0,0 UV-I 30 W/m 28,3 km/h (4 Bft)
07.02.2014 15:48 5,8 C 4,4 C 93 % 996,5 hPa 0,2 l/m 0 min 2 min 0,0 UV-I 37 W/m 30,9 km/h (5 Bft)
07.02.2014 15:50 5,8 C 4,4 C 93 % 996,3 hPa 0,0 l/m 0 min 2 min 0,0 UV-I 40 W/m 15,4 km/h (3 Bft)
07.02.2014 15:52 5,8 C 4,4 C 93 % 996,4 hPa 0,0 l/m 0 min 2 min 0,0 UV-I 49 W/m 23,2 km/h (4 Bft)
07.02.2014 15:54 5,7 C 4,4 C 93 % 996,6 hPa 0,0 l/m 0 min 2 min 0,0 UV-I 47 W/m 30,9 km/h (5 Bft)
07.02.2014 15:56 5,7 C 3,9 C 93 % 996,8 hPa 0,0 l/m 0 min 2 min 0,0 UV-I 40 W/m 43,8 km/h (6 Bft)
07.02.2014 15:58 5,7 C 3,9 C 93 % 996,7 hPa 0,0 l/m 0 min 2 min 0,0 UV-I 37 W/m 28,3 km/h (4 Bft)
07.02.2014 16:00 5,7 C 3,9 C 93 % 996,7 hPa 0,0 l/m 0 min 2 min 0,0 UV-I 33 W/m 23,2 km/h (4 Bft)
07.02.2014 16:02 5,7 C 3,9 C 93 % 996,8 hPa 0,0 l/m 0 min 2 min 0,0 UV-I 28 W/m 25,7 km/h (4 Bft)
07.02.2014 16:04 5,7 C 3,9 C 93 % 996,8 hPa 0,0 l/m 0 min 2 min 0,0 UV-I 25 W/m 20,6 km/h (4 Bft)
07.02.2014 16:06 5,7 C 3,9 C 93 % 997,0 hPa 0,0 l/m 0 min 2 min 0,0 UV-I 21 W/m 25,7 km/h (4 Bft)
07.02.2014 16:08 5,7 C 3,9 C 93 % 997,1 hPa 0,0 l/m 0 min 2 min 0,0 UV-I 19 W/m 43,8 km/h (6 Bft)
07.02.2014 16:10 5,7 C 3,9 C 93 % 997,4 hPa 0,0 l/m 0 min 2 min 0,0 UV-I 19 W/m 20,6 km/h (4 Bft)
07.02.2014 16:12 5,7 C 3,9 C 93 % 997,2 hPa 0,2 l/m 0 min 2 min 0,0 UV-I 19 W/m 23,2 km/h (4 Bft)
07.02.2014 16:14 5,7 C 3,9 C 93 % 997,2 hPa 0,0 l/m 0 min 2 min 0,0 UV-I 14 W/m 20,6 km/h (4 Bft)
07.02.2014 16:16 5,7 C 3,9 C 93 % 997,3 hPa 0,0 l/m 0 min 2 min 0,0 UV-I 18 W/m 25,7 km/h (4 Bft)
07.02.2014 16:18 5,7 C 3,9 C 93 % 997,6 hPa 0,0 l/m 0 min 2 min 0,0 UV-I 16 W/m 30,9 km/h (5 Bft)
07.02.2014 16:20 5,7 C 3,9 C 93 % 997,5 hPa 0,0 l/m 0 min 2 min 0,0 UV-I 16 W/m 23,2 km/h (4 Bft)
07.02.2014 16:22 5,7 C 3,9 C 93 % 997,5 hPa 0,0 l/m 0 min 2 min 0,0 UV-I 16 W/m 30,9 km/h (5 Bft)
07.02.2014 16:24 5,7 C 3,9 C 93 % 997,6 hPa 0,0 l/m 0 min 2 min 0,0 UV-I 14 W/m 23,2 km/h (4 Bft)
07.02.2014 16:26 5,6 C 3,9 C 93 % 997,8 hPa 0,0 l/m 0 min 2 min 0,0 UV-I 18 W/m 25,7 km/h (4 Bft)
07.02.2014 16:28 5,6 C 3,9 C 93 % 997,6 hPa 0,0 l/m 0 min 2 min 0,0 UV-I 14 W/m 25,7 km/h (4 Bft)
07.02.2014 16:30 5,7 C 3,9 C 93 % 997,7 hPa 0,0 l/m 0 min 2 min 0,0 UV-I 18 W/m 25,7 km/h (4 Bft)
07.02.2014 16:32 5,6 C 3,9 C 93 % 997,8 hPa 0,0 l/m 0 min 2 min 0,0 UV-I 14 W/m 25,7 km/h (4 Bft)
07.02.2014 16:34 5,6 C 3,9 C 93 % 997,8 hPa 0,0 l/m 0 min 2 min 0,0 UV-I 12 W/m 18,0 km/h (3 Bft)
07.02.2014 16:36 5,6 C 3,9 C 93 % 997,9 hPa 0,0 l/m 0 min 2 min 0,0 UV-I 12 W/m 28,3 km/h (4 Bft)
07.02.2014 16:38 5,6 C 3,9 C 93 % 997,9 hPa 0,0 l/m 0 min 2 min 0,0 UV-I 11 W/m 25,7 km/h (4 Bft)
07.02.2014 16:40 5,6 C 3,9 C 93 % 997,9 hPa 0,2 l/m 0 min 2 min 0,0 UV-I 11 W/m 18,0 km/h (3 Bft)
07.02.2014 16:42 5,6 C 3,9 C 93 % 998,0 hPa 0,0 l/m 0 min 2 min 0,0 UV-I 11 W/m 23,2 km/h (4 Bft)
07.02.2014 16:44 5,6 C 3,9 C 93 % 998,0 hPa 0,0 l/m 0 min 2 min 0,0 UV-I 11 W/m 36,0 km/h (5 Bft)
07.02.2014 16:46 5,6 C 3,9 C 93 % 998,2 hPa 0,0 l/m 0 min 2 min 0,0 UV-I 9 W/m 46,3 km/h (6 Bft)
07.02.2014 16:48 5,6 C 3,9 C 93 % 998,0 hPa 0,0 l/m 0 min 2 min 0,0 UV-I 11 W/m 30,9 km/h (5 Bft)
07.02.2014 16:50 5,6 C 3,9 C 93 % 998,2 hPa 0,0 l/m 0 min 2 min 0,0 UV-I 9 W/m 15,4 km/h (3 Bft)
07.02.2014 16:52 5,5 C 3,9 C 93 % 998,1 hPa 0,2 l/m 0 min 2 min 0,0 UV-I 9 W/m 30,9 km/h (5 Bft)
07.02.2014 16:54 5,5 C 3,9 C 93 % 998,2 hPa 0,0 l/m 0 min 2 min 0,0 UV-I 7 W/m 33,5 km/h (5 Bft)
07.02.2014 16:56 5,5 C 3,9 C 93 % 998,3 hPa 0,0 l/m 0 min 2 min 0,0 UV-I 7 W/m 20,6 km/h (4 Bft)
07.02.2014 16:58 5,5 C 3,9 C 93 % 998,5 hPa 0,0 l/m 0 min 2 min 0,0 UV-I 7 W/m 28,3 km/h (4 Bft)
07.02.2014 17:00 5,4 C 3,9 C 93 % 998,3 hPa 0,0 l/m 0 min 2 min 0,0 UV-I 7 W/m 20,6 km/h (4 Bft)
07.02.2014 17:02 5,4 C 3,9 C 93 % 998,4 hPa 0,0 l/m 0 min 2 min 0,0 UV-I 7 W/m 15,4 km/h (3 Bft)
07.02.2014 17:04 5,4 C 3,9 C 93 % 998,5 hPa 0,0 l/m 0 min 2 min 0,0 UV-I 7 W/m 15,4 km/h (3 Bft)
07.02.2014 17:06 5,4 C 3,9 C 93 % 998,6 hPa 0,0 l/m 0 min 2 min 0,0 UV-I 7 W/m 25,7 km/h (4 Bft)
07.02.2014 17:08 5,4 C 3,9 C 93 % 998,6 hPa 0,0 l/m 0 min 2 min 0,0 UV-I 5 W/m 15,4 km/h (3 Bft)
07.02.2014 17:10 5,4 C 3,9 C 93 % 998,7 hPa 0,0 l/m 0 min 2 min 0,0 UV-I 5 W/m 33,5 km/h (5 Bft)
07.02.2014 17:12 5,4 C 3,9 C 93 % 998,6 hPa 0,2 l/m 0 min 2 min 0,0 UV-I 5 W/m 15,4 km/h (3 Bft)
07.02.2014 17:14 5,4 C 3,9 C 93 % 998,8 hPa 0,0 l/m 0 min 2 min 0,0 UV-I 5 W/m 23,2 km/h (4 Bft)
07.02.2014 17:16 5,4 C 3,9 C 93 % 998,8 hPa 0,0 l/m 0 min 2 min 0,0 UV-I 0 W/m 12,9 km/h (3 Bft)
07.02.2014 17:18 5,4 C 3,9 C 93 % 998,9 hPa 0,0 l/m 0 min 2 min 0,0 UV-I 5 W/m 23,2 km/h (4 Bft)
07.02.2014 17:20 5,4 C 3,9 C 93 % 998,8 hPa 0,0 l/m 0 min 2 min 0,0 UV-I 0 W/m 15,4 km/h (3 Bft)
07.02.2014 17:22 5,4 C 3,9 C 94 % 998,8 hPa 0,0 l/m 0 min 2 min 0,0 UV-I 0 W/m 33,5 km/h (5 Bft)
07.02.2014 17:24 5,4 C 3,9 C 94 % 999,0 hPa 0,0 l/m 0 min 2 min 0,0 UV-I 0 W/m 20,6 km/h (4 Bft)
07.02.2014 17:26 5,4 C 3,9 C 94 % 999,1 hPa 0,0 l/m 0 min 2 min 0,0 UV-I 0 W/m 23,2 km/h (4 Bft)
07.02.2014 17:28 5,4 C 3,9 C 94 % 999,1 hPa 0,0 l/m 0 min 2 min 0,0 UV-I 0 W/m 15,4 km/h (3 Bft)
07.02.2014 17:30 5,4 C 3,9 C 94 % 999,1 hPa 0,2 l/m 0 min 2 min 0,0 UV-I 0 W/m 28,3 km/h (4 Bft)
07.02.2014 17:32 5,4 C 3,9 C 94 % 999,1 hPa 0,0 l/m 0 min 2 min 0,0 UV-I 0 W/m 23,2 km/h (4 Bft)
07.02.2014 17:34 5,4 C 3,9 C 94 % 999,2 hPa 0,0 l/m 0 min 2 min 0,0 UV-I 0 W/m 7,7 km/h (2 Bft)
07.02.2014 17:36 5,4 C 3,9 C 94 % 999,2 hPa 0,0 l/m 0 min 2 min 0,0 UV-I 0 W/m 10,3 km/h (2 Bft)
07.02.2014 17:38 5,4 C 3,9 C 94 % 999,1 hPa 0,0 l/m 0 min 2 min 0,0 UV-I 0 W/m 18,0 km/h (3 Bft)
07.02.2014 17:40 5,4 C 3,9 C 94 % 999,2 hPa 0,0 l/m 0 min 2 min 0,0 UV-I 0 W/m 28,3 km/h (4 Bft)
07.02.2014 17:42 5,5 C 3,9 C 94 % 999,2 hPa 0,0 l/m 0 min 2 min 0,0 UV-I 0 W/m 20,6 km/h (4 Bft)
07.02.2014 17:44 5,5 C 3,9 C 94 % 999,4 hPa 0,0 l/m 0 min 2 min 0,0 UV-I 0 W/m 10,3 km/h (2 Bft)
07.02.2014 17:46 5,5 C 3,9 C 94 % 999,3 hPa 0,0 l/m 0 min 2 min 0,0 UV-I 0 W/m 12,9 km/h (3 Bft)
07.02.2014 17:48 5,5 C 3,9 C 94 % 999,4 hPa 0,2 l/m 0 min 2 min 0,0 UV-I 0 W/m 15,4 km/h (3 Bft)
07.02.2014 17:50 5,6 C 3,9 C 94 % 999,4 hPa 0,0 l/m 0 min 2 min 0,0 UV-I 0 W/m 20,6 km/h (4 Bft)
07.02.2014 17:52 5,6 C 3,9 C 94 % 999,4 hPa 0,0 l/m 0 min 2 min 0,0 UV-I 0 W/m 25,7 km/h (4 Bft)
07.02.2014 17:54 5,6 C 3,9 C 94 % 999,4 hPa 0,0 l/m 0 min 2 min 0,0 UV-I 0 W/m 12,9 km/h (3 Bft)
07.02.2014 17:56 5,6 C 3,9 C 94 % 999,6 hPa 0,0 l/m 0 min 0 min 0,0 UV-I 0 W/m 7,7 km/h (2 Bft)
07.02.2014 17:58 5,6 C 3,9 C 94 % 999,6 hPa 0,0 l/m 0 min 0 min 0,0 UV-I 0 W/m 25,7 km/h (4 Bft)
07.02.2014 18:00 5,6 C 3,9 C 94 % 999,6 hPa 0,0 l/m 0 min 2 min 0,0 UV-I 0 W/m 15,4 km/h (3 Bft)
07.02.2014 18:02 5,6 C 3,9 C 94 % 999,5 hPa 0,0 l/m 0 min 0 min 0,0 UV-I 0 W/m 10,3 km/h (2 Bft)
07.02.2014 18:04 5,7 C 3,9 C 94 % 999,6 hPa 0,0 l/m 0 min 0 min 0,0 UV-I 0 W/m 15,4 km/h (3 Bft)
07.02.2014 18:06 5,7 C 3,9 C 94 % 999,6 hPa 0,0 l/m 0 min 0 min 0,0 UV-I 0 W/m 15,4 km/h (3 Bft)
07.02.2014 18:08 5,7 C 3,9 C 94 % 999,7 hPa 0,0 l/m 0 min 0 min 0,0 UV-I 0 W/m 12,9 km/h (3 Bft)
07.02.2014 18:10 5,7 C 3,9 C 94 % 999,7 hPa 0,0 l/m 0 min 0 min 0,0 UV-I 0 W/m 18,0 km/h (3 Bft)
07.02.2014 18:12 5,7 C 3,9 C 94 % 999,8 hPa 0,0 l/m 0 min 0 min 0,0 UV-I 0 W/m 10,3 km/h (2 Bft)
07.02.2014 18:14 5,7 C 3,9 C 94 % 999,7 hPa 0,0 l/m 0 min 0 min 0,0 UV-I 0 W/m 10,3 km/h (2 Bft)
07.02.2014 18:16 5,7 C 3,9 C 94 % 999,9 hPa 0,0 l/m 0 min 0 min 0,0 UV-I 0 W/m 10,3 km/h (2 Bft)
07.02.2014 18:18 5,7 C 3,9 C 94 % 1000,1 hPa 0,0 l/m 0 min 0 min 0,0 UV-I 0 W/m 30,9 km/h (5 Bft)
07.02.2014 18:20 5,7 C 3,9 C 94 % 999,8 hPa 0,0 l/m 0 min 0 min 0,0 UV-I 0 W/m 18,0 km/h (3 Bft)
07.02.2014 18:22 5,7 C 3,9 C 94 % 999,9 hPa 0,0 l/m 0 min 0 min 0,0 UV-I 0 W/m 18,0 km/h (3 Bft)
07.02.2014 18:24 5,8 C 3,9 C 94 % 1000,0 hPa 0,0 l/m 0 min 0 min 0,0 UV-I 0 W/m 25,7 km/h (4 Bft)
07.02.2014 18:26 5,8 C 3,9 C 94 % 1000,0 hPa 0,0 l/m 0 min 0 min 0,0 UV-I 0 W/m 15,4 km/h (3 Bft)
07.02.2014 18:28 5,8 C 3,9 C 94 % 1000,1 hPa 0,0 l/m 0 min 0 min 0,0 UV-I 0 W/m 28,3 km/h (4 Bft)
07.02.2014 18:30 5,8 C 3,9 C 94 % 1000,1 hPa 0,0 l/m 0 min 0 min 0,0 UV-I 0 W/m 20,6 km/h (4 Bft)
07.02.2014 18:32 5,8 C 3,9 C 93 % 1000,1 hPa 0,0 l/m 0 min 0 min 0,0 UV-I 0 W/m 12,9 km/h (3 Bft)
07.02.2014 18:34 5,8 C 3,9 C 93 % 1000,1 hPa 0,0 l/m 0 min 0 min 0,0 UV-I 0 W/m 20,6 km/h (4 Bft)
07.02.2014 18:36 5,8 C 3,9 C 93 % 1000,1 hPa 0,0 l/m 0 min 0 min 0,0 UV-I 0 W/m 12,9 km/h (3 Bft)
07.02.2014 18:38 5,9 C 3,9 C 93 % 1000,2 hPa 0,0 l/m 0 min 0 min 0,0 UV-I 0 W/m 30,9 km/h (5 Bft)
07.02.2014 18:40 5,9 C 3,9 C 93 % 1000,2 hPa 0,0 l/m 0 min 0 min 0,0 UV-I 0 W/m 15,4 km/h (3 Bft)
07.02.2014 18:42 5,9 C 3,9 C 93 % 1000,2 hPa 0,0 l/m 0 min 0 min 0,0 UV-I 0 W/m 12,9 km/h (3 Bft)
07.02.2014 18:44 5,9 C 3,9 C 93 % 1000,2 hPa 0,0 l/m 0 min 0 min 0,0 UV-I 0 W/m 12,9 km/h (3 Bft)
07.02.2014 18:46 5,9 C 3,9 C 93 % 1000,2 hPa 0,0 l/m 0 min 0 min 0,0 UV-I 0 W/m 10,3 km/h (2 Bft)
07.02.2014 18:48 5,9 C 3,9 C 93 % 1000,2 hPa 0,0 l/m 0 min 0 min 0,0 UV-I 0 W/m 12,9 km/h (3 Bft)
07.02.2014 18:50 5,9 C 3,9 C 93 % 1000,2 hPa 0,0 l/m 0 min 0 min 0,0 UV-I 0 W/m 7,7 km/h (2 Bft)
07.02.2014 18:52 5,9 C 3,9 C 93 % 1000,1 hPa 0,0 l/m 0 min 0 min 0,0 UV-I 0 W/m 5,1 km/h (1 Bft)
07.02.2014 18:54 5,9 C 3,9 C 93 % 1000,2 hPa 0,0 l/m 0 min 0 min 0,0 UV-I 0 W/m 10,3 km/h (2 Bft)
07.02.2014 18:56 5,9 C 3,9 C 92 % 1000,3 hPa 0,0 l/m 0 min 0 min 0,0 UV-I 0 W/m 7,7 km/h (2 Bft)
07.02.2014 18:58 5,9 C 3,9 C 92 % 1000,3 hPa 0,0 l/m 0 min 0 min 0,0 UV-I 0 W/m 10,3 km/h (2 Bft)
07.02.2014 19:00 5,9 C 3,9 C 92 % 1000,4 hPa 0,0 l/m 0 min 0 min 0,0 UV-I 0 W/m 2,6 km/h (1 Bft)
07.02.2014 19:02 5,9 C 3,9 C 92 % 1000,4 hPa 0,0 l/m 0 min 0 min 0,0 UV-I 0 W/m 12,9 km/h (3 Bft)
07.02.2014 19:04 5,9 C 3,9 C 92 % 1000,4 hPa 0,0 l/m 0 min 0 min 0,0 UV-I 0 W/m 10,3 km/h (2 Bft)
07.02.2014 19:06 5,9 C 3,9 C 92 % 1000,4 hPa 0,0 l/m 0 min 0 min 0,0 UV-I 0 W/m 7,7 km/h (2 Bft)
07.02.2014 19:08 5,9 C 3,9 C 92 % 1000,4 hPa 0,0 l/m 0 min 0 min 0,0 UV-I 0 W/m 5,1 km/h (1 Bft)
07.02.2014 19:10 5,8 C 3,9 C 92 % 1000,4 hPa 0,0 l/m 0 min 0 min 0,0 UV-I 0 W/m 10,3 km/h (2 Bft)
07.02.2014 19:12 5,8 C 3,9 C 92 % 1000,5 hPa 0,0 l/m 0 min 0 min 0,0 UV-I 0 W/m 12,9 km/h (3 Bft)
07.02.2014 19:14 5,9 C 3,9 C 92 % 1000,5 hPa 0,0 l/m 0 min 0 min 0,0 UV-I 0 W/m 15,4 km/h (3 Bft)
07.02.2014 19:16 5,9 C 3,9 C 91 % 1000,6 hPa 0,0 l/m 0 min 0 min 0,0 UV-I 0 W/m 0,0 km/h (0 Bft)
07.02.2014 19:18 5,9 C 3,9 C 91 % 1000,7 hPa 0,0 l/m 0 min 0 min 0,0 UV-I 0 W/m 5,1 km/h (1 Bft)
07.02.2014 19:20 5,9 C 3,9 C 91 % 1000,6 hPa 0,0 l/m 0 min 0 min 0,0 UV-I 0 W/m 10,3 km/h (2 Bft)
07.02.2014 19:22 5,9 C 3,9 C 91 % 1000,7 hPa 0,0 l/m 0 min 0 min 0,0 UV-I 0 W/m 0,0 km/h (0 Bft)
07.02.2014 19:24 5,9 C 3,9 C 91 % 1000,7 hPa 0,0 l/m 0 min 0 min 0,0 UV-I 0 W/m 0,0 km/h (0 Bft)
07.02.2014 19:26 5,9 C 3,9 C 91 % 1000,8 hPa 0,0 l/m 0 min 0 min 0,0 UV-I 0 W/m 12,9 km/h (3 Bft)
07.02.2014 19:28 5,9 C 3,3 C 91 % 1000,7 hPa 0,0 l/m 0 min 0 min 0,0 UV-I 0 W/m 0,0 km/h (0 Bft)
07.02.2014 19:30 5,8 C 3,3 C 91 % 1000,7 hPa 0,0 l/m 0 min 0 min 0,0 UV-I 0 W/m 12,9 km/h (3 Bft)
07.02.2014 19:32 5,8 C 3,3 C 91 % 1000,9 hPa 0,0 l/m 0 min 0 min 0,0 UV-I 0 W/m 12,9 km/h (3 Bft)
07.02.2014 19:34 5,8 C 3,9 C 91 % 1001,0 hPa 0,0 l/m 0 min 0 min 0,0 UV-I 0 W/m 12,9 km/h (3 Bft)
07.02.2014 19:36 5,9 C 3,9 C 91 % 1001,0 hPa 0,0 l/m 0 min 0 min 0,0 UV-I 0 W/m 12,9 km/h (3 Bft)
07.02.2014 19:38 5,9 C 3,9 C 91 % 1001,0 hPa 0,0 l/m 0 min 0 min 0,0 UV-I 0 W/m 10,3 km/h (2 Bft)
07.02.2014 19:40 5,9 C 3,9 C 91 % 1000,9 hPa 0,0 l/m 0 min 0 min 0,0 UV-I 0 W/m 15,4 km/h (3 Bft)
07.02.2014 19:42 5,9 C 3,9 C 91 % 1001,0 hPa 0,0 l/m 0 min 0 min 0,0 UV-I 0 W/m 18,0 km/h (3 Bft)
07.02.2014 19:44 5,9 C 3,9 C 90 % 1000,9 hPa 0,0 l/m 0 min 0 min 0,0 UV-I 0 W/m 15,4 km/h (3 Bft)
07.02.2014 19:46 6,0 C 3,9 C 90 % 1001,1 hPa 0,0 l/m 0 min 0 min 0,0 UV-I 0 W/m 10,3 km/h (2 Bft)
07.02.2014 19:48 6,0 C 3,9 C 90 % 1001,1 hPa 0,0 l/m 0 min 0 min 0,0 UV-I 0 W/m 25,7 km/h (4 Bft)
07.02.2014 19:50 6,1 C 3,9 C 90 % 1001,1 hPa 0,0 l/m 0 min 0 min 0,0 UV-I 0 W/m 12,9 km/h (3 Bft)
07.02.2014 19:52 6,1 C 3,9 C 90 % 1001,1 hPa 0,0 l/m 0 min 0 min 0,0 UV-I 0 W/m 10,3 km/h (2 Bft)
07.02.2014 19:54 6,1 C 3,9 C 89 % 1001,0 hPa 0,0 l/m 0 min 0 min 0,0 UV-I 0 W/m 23,2 km/h (4 Bft)
07.02.2014 19:56 6,1 C 3,9 C 89 % 1001,0 hPa 0,0 l/m 0 min 0 min 0,0 UV-I 0 W/m 10,3 km/h (2 Bft)
07.02.2014 19:58 6,1 C 3,9 C 89 % 1001,0 hPa 0,0 l/m 0 min 0 min 0,0 UV-I 0 W/m 10,3 km/h (2 Bft)
07.02.2014 20:00 6,1 C 3,3 C 89 % 1001,0 hPa 0,0 l/m 0 min 0 min 0,0 UV-I 0 W/m 10,3 km/h (2 Bft)
07.02.2014 20:02 6,0 C 3,3 C 89 % 1001,1 hPa 0,0 l/m 0 min 0 min 0,0 UV-I 0 W/m 15,4 km/h (3 Bft)
07.02.2014 20:04 6,0 C 3,3 C 89 % 1001,2 hPa 0,0 l/m 0 min 0 min 0,0 UV-I 0 W/m 10,3 km/h (2 Bft)
07.02.2014 20:06 6,0 C 3,3 C 89 % 1001,2 hPa 0,0 l/m 0 min 0 min 0,0 UV-I 0 W/m 15,4 km/h (3 Bft)
07.02.2014 20:08 6,0 C 3,3 C 89 % 1001,2 hPa 0,0 l/m 0 min 0 min 0,0 UV-I 0 W/m 12,9 km/h (3 Bft)
07.02.2014 20:10 6,0 C 3,9 C 89 % 1001,2 hPa 0,0 l/m 0 min 0 min 0,0 UV-I 0 W/m 25,7 km/h (4 Bft)
07.02.2014 20:12 6,0 C 3,9 C 89 % 1001,2 hPa 0,0 l/m 0 min 0 min 0,0 UV-I 0 W/m 18,0 km/h (3 Bft)
07.02.2014 20:14 6,0 C 3,9 C 89 % 1001,2 hPa 0,0 l/m 0 min 0 min 0,0 UV-I 0 W/m 15,4 km/h (3 Bft)
07.02.2014 20:16 6,0 C 3,3 C 89 % 1001,2 hPa 0,0 l/m 0 min 0 min 0,0 UV-I 0 W/m 12,9 km/h (3 Bft)
07.02.2014 20:18 6,0 C 3,3 C 89 % 1001,2 hPa 0,0 l/m 0 min 0 min 0,0 UV-I 0 W/m 12,9 km/h (3 Bft)
07.02.2014 20:20 6,0 C 3,3 C 89 % 1001,2 hPa 0,0 l/m 0 min 0 min 0,0 UV-I 0 W/m 12,9 km/h (3 Bft)
07.02.2014 20:22 6,0 C 3,3 C 89 % 1001,2 hPa 0,0 l/m 0 min 0 min 0,0 UV-I 0 W/m 15,4 km/h (3 Bft)
07.02.2014 20:24 6,0 C 3,3 C 89 % 1001,2 hPa 0,0 l/m 0 min 0 min 0,0 UV-I 0 W/m 15,4 km/h (3 Bft)
07.02.2014 20:26 6,1 C 3,3 C 89 % 1001,3 hPa 0,0 l/m 0 min 0 min 0,0 UV-I 0 W/m 18,0 km/h (3 Bft)
07.02.2014 20:28 6,0 C 3,3 C 89 % 1001,3 hPa 0,0 l/m 0 min 0 min 0,0 UV-I 0 W/m 0,0 km/h (0 Bft)
07.02.2014 20:30 6,0 C 3,3 C 89 % 1001,3 hPa 0,0 l/m 0 min 0 min 0,0 UV-I 0 W/m 20,6 km/h (4 Bft)
07.02.2014 20:32 6,0 C 3,3 C 89 % 1001,3 hPa 0,0 l/m 0 min 0 min 0,0 UV-I 0 W/m 12,9 km/h (3 Bft)
07.02.2014 20:34 5,9 C 3,3 C 89 % 1001,3 hPa 0,0 l/m 0 min 0 min 0,0 UV-I 0 W/m 10,3 km/h (2 Bft)
07.02.2014 20:36 5,9 C 3,3 C 89 % 1001,4 hPa 0,0 l/m 0 min 0 min 0,0 UV-I 0 W/m 5,1 km/h (1 Bft)
07.02.2014 20:38 5,9 C 3,3 C 89 % 1001,4 hPa 0,0 l/m 0 min 0 min 0,0 UV-I 0 W/m 12,9 km/h (3 Bft)
07.02.2014 20:40 5,9 C 3,3 C 89 % 1001,4 hPa 0,0 l/m 0 min 0 min 0,0 UV-I 0 W/m 10,3 km/h (2 Bft)
07.02.2014 20:42 5,9 C 3,3 C 89 % 1001,3 hPa 0,0 l/m 0 min 0 min 0,0 UV-I 0 W/m 12,9 km/h (3 Bft)
07.02.2014 20:44 5,8 C 3,3 C 89 % 1001,4 hPa 0,0 l/m 0 min 0 min 0,0 UV-I 0 W/m 7,7 km/h (2 Bft)
07.02.2014 20:46 5,8 C 3,3 C 89 % 1001,4 hPa 0,0 l/m 0 min 0 min 0,0 UV-I 0 W/m 18,0 km/h (3 Bft)
07.02.2014 20:48 5,8 C 3,3 C 89 % 1001,4 hPa 0,0 l/m 0 min 0 min 0,0 UV-I 0 W/m 12,9 km/h (3 Bft)
07.02.2014 20:50 5,8 C 3,3 C 89 % 1001,3 hPa 0,0 l/m 0 min 0 min 0,0 UV-I 0 W/m 12,9 km/h (3 Bft)
07.02.2014 20:52 5,8 C 3,3 C 89 % 1001,3 hPa 0,0 l/m 0 min 0 min 0,0 UV-I 0 W/m 12,9 km/h (3 Bft)
07.02.2014 20:54 5,8 C 3,3 C 88 % 1001,3 hPa 0,0 l/m 0 min 0 min 0,0 UV-I 0 W/m 15,4 km/h (3 Bft)
07.02.2014 20:56 5,8 C 3,3 C 88 % 1001,3 hPa 0,0 l/m 0 min 0 min 0,0 UV-I 0 W/m 12,9 km/h (3 Bft)
07.02.2014 20:58 5,8 C 3,3 C 88 % 1001,4 hPa 0,0 l/m 0 min 0 min 0,0 UV-I 0 W/m 20,6 km/h (4 Bft)
07.02.2014 21:00 5,8 C 3,3 C 88 % 1001,4 hPa 0,0 l/m 0 min 0 min 0,0 UV-I 0 W/m 15,4 km/h (3 Bft)
07.02.2014 21:02 5,7 C 3,3 C 88 % 1001,4 hPa 0,0 l/m 0 min 0 min 0,0 UV-I 0 W/m 23,2 km/h (4 Bft)
07.02.2014 21:04 5,7 C 3,3 C 88 % 1001,4 hPa 0,0 l/m 0 min 0 min 0,0 UV-I 0 W/m 18,0 km/h (3 Bft)
07.02.2014 21:06 5,7 C 3,3 C 88 % 1001,4 hPa 0,0 l/m 0 min 0 min 0,0 UV-I 0 W/m 28,3 km/h (4 Bft)
07.02.2014 21:08 5,7 C 3,3 C 88 % 1001,3 hPa 0,0 l/m 0 min 0 min 0,0 UV-I 0 W/m 20,6 km/h (4 Bft)
07.02.2014 21:10 5,7 C 3,3 C 88 % 1001,3 hPa 0,0 l/m 0 min 0 min 0,0 UV-I 0 W/m 12,9 km/h (3 Bft)
07.02.2014 21:12 5,7 C 3,3 C 88 % 1001,4 hPa 0,0 l/m 0 min 0 min 0,0 UV-I 0 W/m 15,4 km/h (3 Bft)
07.02.2014 21:14 5,7 C 3,3 C 88 % 1001,4 hPa 0,0 l/m 0 min 0 min 0,0 UV-I 0 W/m 0,0 km/h (0 Bft)
07.02.2014 21:16 5,7 C 3,3 C 88 % 1001,4 hPa 0,0 l/m 0 min 0 min 0,0 UV-I 0 W/m 15,4 km/h (3 Bft)
07.02.2014 21:18 5,6 C 3,3 C 88 % 1001,4 hPa 0,0 l/m 0 min 0 min 0,0 UV-I 0 W/m 25,7 km/h (4 Bft)
07.02.2014 21:20 5,6 C 3,3 C 88 % 1001,4 hPa 0,0 l/m 0 min 0 min 0,0 UV-I 0 W/m 10,3 km/h (2 Bft)
07.02.2014 21:22 5,6 C 3,3 C 88 % 1001,3 hPa 0,0 l/m 0 min 0 min 0,0 UV-I 0 W/m 20,6 km/h (4 Bft)
07.02.2014 21:24 5,6 C 3,3 C 88 % 1001,4 hPa 0,0 l/m 0 min 0 min 0,0 UV-I 0 W/m 7,7 km/h (2 Bft)
07.02.2014 21:26 5,6 C 3,3 C 88 % 1001,4 hPa 0,0 l/m 0 min 0 min 0,0 UV-I 0 W/m 20,6 km/h (4 Bft)
07.02.2014 21:28 5,6 C 3,3 C 88 % 1001,4 hPa 0,0 l/m 0 min 0 min 0,0 UV-I 0 W/m 18,0 km/h (3 Bft)
07.02.2014 21:30 5,6 C 3,3 C 88 % 1001,4 hPa 0,0 l/m 0 min 0 min 0,0 UV-I 0 W/m 25,7 km/h (4 Bft)
07.02.2014 21:32 5,6 C 3,3 C 88 % 1001,4 hPa 0,0 l/m 0 min 0 min 0,0 UV-I 0 W/m 18,0 km/h (3 Bft)
07.02.2014 21:34 5,6 C 3,3 C 88 % 1001,4 hPa 0,0 l/m 0 min 0 min 0,0 UV-I 0 W/m 23,2 km/h (4 Bft)
07.02.2014 21:36 5,6 C 3,3 C 88 % 1001,4 hPa 0,0 l/m 0 min 0 min 0,0 UV-I 0 W/m 23,2 km/h (4 Bft)
07.02.2014 21:38 5,6 C 3,3 C 88 % 1001,5 hPa 0,0 l/m 0 min 0 min 0,0 UV-I 0 W/m 12,9 km/h (3 Bft)
07.02.2014 21:40 5,6 C 3,3 C 88 % 1001,5 hPa 0,0 l/m 0 min 0 min 0,0 UV-I 0 W/m 12,9 km/h (3 Bft)
07.02.2014 21:42 5,6 C 3,3 C 88 % 1001,5 hPa 0,0 l/m 0 min 0 min 0,0 UV-I 0 W/m 10,3 km/h (2 Bft)
07.02.2014 21:44 5,5 C 3,3 C 88 % 1001,5 hPa 0,0 l/m 0 min 0 min 0,0 UV-I 0 W/m 12,9 km/h (3 Bft)
07.02.2014 21:46 5,5 C 3,3 C 88 % 1001,6 hPa 0,0 l/m 0 min 0 min 0,0 UV-I 0 W/m 18,0 km/h (3 Bft)
07.02.2014 21:48 5,5 C 3,3 C 88 % 1001,5 hPa 0,0 l/m 0 min 0 min 0,0 UV-I 0 W/m 15,4 km/h (3 Bft)
07.02.2014 21:50 5,5 C 3,3 C 88 % 1001,5 hPa 0,0 l/m 0 min 0 min 0,0 UV-I 0 W/m 15,4 km/h (3 Bft)
07.02.2014 21:52 5,4 C 3,3 C 88 % 1001,6 hPa 0,0 l/m 0 min 0 min 0,0 UV-I 0 W/m 7,7 km/h (2 Bft)
07.02.2014 21:54 5,4 C 3,3 C 88 % 1001,6 hPa 0,0 l/m 0 min 0 min 0,0 UV-I 0 W/m 12,9 km/h (3 Bft)
07.02.2014 21:56 5,4 C 2,8 C 88 % 1001,6 hPa 0,0 l/m 0 min 0 min 0,0 UV-I 0 W/m 12,9 km/h (3 Bft)
07.02.2014 21:58 5,4 C 2,8 C 88 % 1001,6 hPa 0,0 l/m 0 min 0 min 0,0 UV-I 0 W/m 20,6 km/h (4 Bft)
07.02.2014 22:00 5,4 C 2,8 C 88 % 1001,6 hPa 0,0 l/m 0 min 0 min 0,0 UV-I 0 W/m 18,0 km/h (3 Bft)
07.02.2014 22:02 5,3 C 2,8 C 88 % 1001,6 hPa 0,0 l/m 0 min 0 min 0,0 UV-I 0 W/m 12,9 km/h (3 Bft)
07.02.2014 22:04 5,3 C 2,8 C 88 % 1001,5 hPa 0,0 l/m 0 min 0 min 0,0 UV-I 0 W/m 20,6 km/h (4 Bft)
07.02.2014 22:06 5,3 C 2,8 C 88 % 1001,6 hPa 0,0 l/m 0 min 0 min 0,0 UV-I 0 W/m 20,6 km/h (4 Bft)
07.02.2014 22:08 5,3 C 2,8 C 88 % 1001,7 hPa 0,0 l/m 0 min 0 min 0,0 UV-I 0 W/m 20,6 km/h (4 Bft)
07.02.2014 22:10 5,3 C 2,8 C 88 % 1001,6 hPa 0,0 l/m 0 min 0 min 0,0 UV-I 0 W/m 10,3 km/h (2 Bft)
07.02.2014 22:12 5,2 C 2,8 C 88 % 1001,6 hPa 0,0 l/m 0 min 0 min 0,0 UV-I 0 W/m 10,3 km/h (2 Bft)
07.02.2014 22:14 5,2 C 2,8 C 88 % 1001,6 hPa 0,0 l/m 0 min 0 min 0,0 UV-I 0 W/m 12,9 km/h (3 Bft)
07.02.2014 22:16 5,2 C 2,8 C 88 % 1001,6 hPa 0,0 l/m 0 min 0 min 0,0 UV-I 0 W/m 12,9 km/h (3 Bft)
07.02.2014 22:18 5,2 C 2,8 C 88 % 1001,6 hPa 0,0 l/m 0 min 0 min 0,0 UV-I 0 W/m 7,7 km/h (2 Bft)
07.02.2014 22:20 5,2 C 2,8 C 88 % 1001,6 hPa 0,0 l/m 0 min 0 min 0,0 UV-I 0 W/m 12,9 km/h (3 Bft)
07.02.2014 22:22 5,2 C 2,8 C 88 % 1001,7 hPa 0,0 l/m 0 min 0 min 0,0 UV-I 0 W/m 12,9 km/h (3 Bft)
07.02.2014 22:24 5,1 C 2,8 C 88 % 1001,7 hPa 0,0 l/m 0 min 0 min 0,0 UV-I 0 W/m 20,6 km/h (4 Bft)
07.02.2014 22:26 5,1 C 3,3 C 88 % 1001,7 hPa 0,0 l/m 0 min 0 min 0,0 UV-I 0 W/m 20,6 km/h (4 Bft)
07.02.2014 22:28 5,1 C 3,3 C 88 % 1001,7 hPa 0,0 l/m 0 min 0 min 0,0 UV-I 0 W/m 20,6 km/h (4 Bft)
07.02.2014 22:32 5,1 C 3,3 C 88 % 1001,8 hPa 0,0 l/m 0 min 0 min 0,0 UV-I 0 W/m 18,0 km/h (3 Bft)
07.02.2014 22:34 5,1 C 3,3 C 88 % 1001,8 hPa 0,0 l/m 0 min 0 min 0,0 UV-I 0 W/m 15,4 km/h (3 Bft)
07.02.2014 22:38 5,1 C 3,3 C 88 % 1001,9 hPa 0,0 l/m 0 min 0 min 0,0 UV-I 0 W/m 28,3 km/h (4 Bft)
07.02.2014 22:40 5,2 C 3,3 C 88 % 1001,8 hPa 0,0 l/m 0 min 0 min 0,0 UV-I 0 W/m 7,7 km/h (2 Bft)
07.02.2014 22:42 5,1 C 3,3 C 88 % 1001,7 hPa 0,0 l/m 0 min 0 min 0,0 UV-I 0 W/m 18,0 km/h (3 Bft)
07.02.2014 22:44 5,1 C 3,3 C 88 % 1001,8 hPa 0,0 l/m 0 min 0 min 0,0 UV-I 0 W/m 10,3 km/h (2 Bft)
07.02.2014 22:46 5,1 C 3,3 C 88 % 1001,7 hPa 0,0 l/m 0 min 0 min 0,0 UV-I 0 W/m 10,3 km/h (2 Bft)
07.02.2014 22:48 5,1 C 3,3 C 88 % 1001,7 hPa 0,0 l/m 0 min 0 min 0,0 UV-I 0 W/m 20,6 km/h (4 Bft)
07.02.2014 22:50 5,1 C 3,3 C 88 % 1001,6 hPa 0,0 l/m 0 min 0 min 0,0 UV-I 0 W/m 18,0 km/h (3 Bft)
07.02.2014 22:52 5,1 C 3,3 C 88 % 1001,7 hPa 0,0 l/m 0 min 0 min 0,0 UV-I 0 W/m 12,9 km/h (3 Bft)
07.02.2014 22:54 5,0 C 3,3 C 88 % 1001,7 hPa 0,0 l/m 0 min 0 min 0,0 UV-I 0 W/m 12,9 km/h (3 Bft)
07.02.2014 22:56 5,0 C 3,3 C 88 % 1001,7 hPa 0,0 l/m 0 min 0 min 0,0 UV-I 0 W/m 10,3 km/h (2 Bft)
07.02.2014 22:58 5,0 C 3,3 C 88 % 1001,6 hPa 0,0 l/m 0 min 0 min 0,0 UV-I 0 W/m 12,9 km/h (3 Bft)
07.02.2014 23:00 4,9 C 3,3 C 88 % 1001,6 hPa 0,0 l/m 0 min 0 min 0,0 UV-I 0 W/m 5,1 km/h (1 Bft)
07.02.2014 23:02 4,9 C 3,3 C 88 % 1001,5 hPa 0,0 l/m 0 min 0 min 0,0 UV-I 0 W/m 7,7 km/h (2 Bft)
07.02.2014 23:04 5,0 C 3,3 C 88 % 1001,5 hPa 0,0 l/m 0 min 0 min 0,0 UV-I 0 W/m 10,3 km/h (2 Bft)
07.02.2014 23:06 5,0 C 3,3 C 88 % 1001,5 hPa 0,0 l/m 0 min 0 min 0,0 UV-I 0 W/m 15,4 km/h (3 Bft)
07.02.2014 23:08 5,0 C 3,3 C 88 % 1001,5 hPa 0,0 l/m 0 min 0 min 0,0 UV-I 0 W/m 18,0 km/h (3 Bft)
07.02.2014 23:10 5,0 C 3,3 C 87 % 1001,5 hPa 0,0 l/m 0 min 0 min 0,0 UV-I 0 W/m 7,7 km/h (2 Bft)
07.02.2014 23:12 5,0 C 3,3 C 87 % 1001,6 hPa 0,0 l/m 0 min 0 min 0,0 UV-I 0 W/m 20,6 km/h (4 Bft)
07.02.2014 23:14 4,9 C 3,3 C 87 % 1001,6 hPa 0,0 l/m 0 min 0 min 0,0 UV-I 0 W/m 25,7 km/h (4 Bft)
07.02.2014 23:16 4,9 C 3,3 C 87 % 1001,5 hPa 0,0 l/m 0 min 0 min 0,0 UV-I 0 W/m 5,1 km/h (1 Bft)
07.02.2014 23:18 4,9 C 3,3 C 87 % 1001,5 hPa 0,0 l/m 0 min 0 min 0,0 UV-I 0 W/m 5,1 km/h (1 Bft)
07.02.2014 23:20 4,9 C 3,3 C 87 % 1001,5 hPa 0,0 l/m 0 min 0 min 0,0 UV-I 0 W/m 15,4 km/h (3 Bft)
07.02.2014 23:22 4,9 C 2,8 C 87 % 1001,5 hPa 0,0 l/m 0 min 0 min 0,0 UV-I 0 W/m 12,9 km/h (3 Bft)
07.02.2014 23:24 4,9 C 3,3 C 87 % 1001,5 hPa 0,0 l/m 0 min 0 min 0,0 UV-I 0 W/m 15,4 km/h (3 Bft)
07.02.2014 23:26 4,9 C 3,3 C 87 % 1001,5 hPa 0,0 l/m 0 min 0 min 0,0 UV-I 0 W/m 12,9 km/h (3 Bft)
07.02.2014 23:28 4,9 C 3,3 C 87 % 1001,5 hPa 0,0 l/m 0 min 0 min 0,0 UV-I 0 W/m 15,4 km/h (3 Bft)
07.02.2014 23:30 4,8 C 2,8 C 87 % 1001,4 hPa 0,0 l/m 0 min 0 min 0,0 UV-I 0 W/m 15,4 km/h (3 Bft)
07.02.2014 23:32 4,8 C 3,3 C 87 % 1001,3 hPa 0,0 l/m 0 min 0 min 0,0 UV-I 0 W/m 15,4 km/h (3 Bft)
07.02.2014 23:34 4,8 C 3,3 C 87 % 1001,4 hPa 0,0 l/m 0 min 0 min 0,0 UV-I 0 W/m 7,7 km/h (2 Bft)
07.02.2014 23:36 4,8 C 2,8 C 87 % 1001,2 hPa 0,0 l/m 0 min 0 min 0,0 UV-I 0 W/m 7,7 km/h (2 Bft)
07.02.2014 23:38 4,8 C 2,8 C 87 % 1001,2 hPa 0,0 l/m 0 min 0 min 0,0 UV-I 0 W/m 7,7 km/h (2 Bft)
07.02.2014 23:40 4,7 C 2,8 C 87 % 1001,3 hPa 0,0 l/m 0 min 0 min 0,0 UV-I 0 W/m 10,3 km/h (2 Bft)
07.02.2014 23:42 4,7 C 2,8 C 87 % 1001,2 hPa 0,0 l/m 0 min 0 min 0,0 UV-I 0 W/m 7,7 km/h (2 Bft)
07.02.2014 23:44 4,7 C 2,8 C 87 % 1001,2 hPa 0,0 l/m 0 min 0 min 0,0 UV-I 0 W/m 7,7 km/h (2 Bft)
07.02.2014 23:46 4,7 C 2,8 C 87 % 1001,2 hPa 0,0 l/m 0 min 0 min 0,0 UV-I 0 W/m 10,3 km/h (2 Bft)
07.02.2014 23:48 4,6 C 2,8 C 87 % 1001,2 hPa 0,0 l/m 0 min 0 min 0,0 UV-I 0 W/m 5,1 km/h (1 Bft)
07.02.2014 23:50 4,6 C 2,8 C 87 % 1001,0 hPa 0,0 l/m 0 min 0 min 0,0 UV-I 0 W/m 12,9 km/h (3 Bft)
07.02.2014 23:52 4,6 C 2,8 C 87 % 1000,9 hPa 0,0 l/m 0 min 0 min 0,0 UV-I 0 W/m 10,3 km/h (2 Bft)
07.02.2014 23:54 4,6 C 2,8 C 87 % 1000,9 hPa 0,0 l/m 0 min 0 min 0,0 UV-I 0 W/m 18,0 km/h (3 Bft)
07.02.2014 23:56 4,6 C 2,8 C 87 % 1000,8 hPa 0,0 l/m 0 min 0 min 0,0 UV-I 0 W/m 7,7 km/h (2 Bft)
07.02.2014 23:58 4,6 C 2,8 C 87 % 1000,8 hPa 0,0 l/m 0 min 0 min 0,0 UV-I 0 W/m 15,4 km/h (3 Bft)
_ Min-Zeit 23:48 21:56 10:10 09:26 - - - - - 05:52
Minimum _ 4,6 C 2,8 C 71 % 985,4 hPa - - - - - 0,0 km/h (0 Bft)
_ Max-Zeit 10:02 09:52 17:22 22:38 02:32 09:30 01:12 00:00 10:26 12:44
Maximum _ 12,5 C 10,6 C 94 % 1001,9 hPa 0,2 l/m 2 min 2 min 0,0 UV-I 373 W/m 85,0 km/h
O (9 Bft)
Durchschnitt _ 8,1 C 5,9 C 85 % 993,0 hPa #5,0 l/m #36 min. #9:02 h 0,0 UV-I 61 W/m 24,4 km/h (4 Bft)
© 2014 W. Hausmann